Time,TemperatureF,DewpointF,PressureIn,WindDirection,WindDirectionDegrees,WindSpeedMPH,WindSpeedGustMPH,Humidity,HourlyPrecipIn,Conditions,Clouds,dailyrainin,SoftwareType,DateUTC
2013-09-04 00:00:00,63.4,59.5,29.78,West,264,0.0,0.0,87,0.00,,SKC,0.00,VWS V14.01,2013-09-04 04:00:00,
2013-09-04 00:01:00,63.4,59.5,29.78,West,264,0.0,0.0,87,0.00,,SKC,0.00,VWS V14.01,2013-09-04 04:01:00,
2013-09-04 00:02:00,63.4,59.5,29.78,West,264,0.0,0.0,87,0.00,,SKC,0.00,VWS V14.01,2013-09-04 04:02:00,
2013-09-04 00:06:00,63.2,58.6,29.78,West,264,0.0,0.0,85,0.00,,SKC,0.00,VWS V14.01,2013-09-04 04:06:00,
2013-09-04 00:07:00,63.2,58.6,29.78,West,264,0.0,0.0,85,0.00,,SKC,0.00,VWS V14.01,2013-09-04 04:07:00,
2013-09-04 00:11:00,63.2,58.6,29.78,NW,311,0.0,0.0,85,0.00,,SKC,0.00,VWS V14.01,2013-09-04 04:11:00,
2013-09-04 00:12:00,63.2,58.6,29.78,NW,311,0.0,0.0,85,0.00,,SKC,0.00,VWS V14.01,2013-09-04 04:12:00,
2013-09-04 00:16:00,63.1,58.2,29.79,NW,311,0.0,0.0,84,0.00,,SKC,0.00,VWS V14.01,2013-09-04 04:16:00,
2013-09-04 00:17:00,63.1,58.2,29.79,NW,312,0.0,0.0,84,0.00,,SKC,0.00,VWS V14.01,2013-09-04 04:17:00,
2013-09-04 00:18:00,63.1,58.2,29.79,NW,312,0.0,0.0,84,0.00,,SKC,0.00,VWS V14.01,2013-09-04 04:18:00,
2013-09-04 00:21:00,63.1,58.2,29.79,NW,312,0.0,0.0,84,0.00,,SKC,0.00,VWS V14.01,2013-09-04 04:21:00,
2013-09-04 00:22:00,63.2,58.3,29.79,NW,311,0.0,0.0,84,0.00,,SKC,0.00,VWS V14.01,2013-09-04 04:22:00,
2013-09-04 00:24:00,63.2,58.3,29.79,NW,311,0.0,0.0,84,0.00,,SKC,0.00,VWS V14.01,2013-09-04 04:24:00,
2013-09-04 00:26:00,63.1,57.9,29.79,NW,311,0.0,0.0,83,0.00,,SKC,0.00,VWS V14.01,2013-09-04 04:26:00,
2013-09-04 00:27:00,63.1,57.9,29.79,NW,312,0.0,0.0,83,0.00,,SKC,0.00,VWS V14.01,2013-09-04 04:27:00,
2013-09-04 00:29:00,63.1,58.2,29.79,NW,312,0.0,0.0,84,0.00,,SKC,0.00,VWS V14.01,2013-09-04 04:29:00,
2013-09-04 00:31:00,63.1,58.2,29.78,NW,312,0.0,0.0,84,0.00,,SKC,0.00,VWS V14.01,2013-09-04 04:31:00,
2013-09-04 00:34:00,63.1,58.2,29.78,NW,311,0.0,0.0,84,0.00,,SKC,0.00,VWS V14.01,2013-09-04 04:34:00,
2013-09-04 00:35:00,62.9,58.0,29.78,NW,311,0.0,0.0,84,0.00,,SKC,0.00,VWS V14.01,2013-09-04 04:35:00,
2013-09-04 00:36:00,62.9,57.7,29.78,NW,311,0.0,0.0,83,0.00,,SKC,0.00,VWS V14.01,2013-09-04 04:36:00,
2013-09-04 00:37:00,62.9,57.7,29.78,NW,311,0.0,0.0,83,0.00,,SKC,0.00,VWS V14.01,2013-09-04 04:37:00,
2013-09-04 00:39:00,62.9,58.0,29.78,NW,312,0.0,0.0,84,0.00,,SKC,0.00,VWS V14.01,2013-09-04 04:39:00,
2013-09-04 00:40:00,62.9,58.0,29.78,NW,312,0.0,0.0,84,0.00,,SKC,0.00,VWS V14.01,2013-09-04 04:40:00,
2013-09-04 00:41:00,62.9,58.0,29.78,NW,311,0.0,0.0,84,0.00,,SKC,0.00,VWS V14.01,2013-09-04 04:41:00,
2013-09-04 00:42:00,62.9,58.0,29.78,NW,313,0.0,0.0,84,0.00,,SKC,0.00,VWS V14.01,2013-09-04 04:42:00,
2013-09-04 00:45:00,62.9,58.3,29.78,NW,313,0.0,0.0,85,0.00,,SKC,0.00,VWS V14.01,2013-09-04 04:45:00,
2013-09-04 00:46:00,62.9,58.3,29.78,NW,311,0.0,0.0,85,0.00,,SKC,0.00,VWS V14.01,2013-09-04 04:46:00,
2013-09-04 00:47:00,62.9,58.3,29.78,NW,312,0.0,0.0,85,0.00,,SKC,0.00,VWS V14.01,2013-09-04 04:47:00,
2013-09-04 00:48:00,62.9,58.3,29.78,NW,311,0.0,0.0,85,0.00,,SKC,0.00,VWS V14.01,2013-09-04 04:48:00,
2013-09-04 00:50:00,62.7,58.1,29.78,NW,311,0.0,0.0,85,0.00,,SKC,0.00,VWS V14.01,2013-09-04 04:50:00,
2013-09-04 00:51:00,62.7,58.1,29.78,NW,311,0.0,0.0,85,0.00,,SKC,0.00,VWS V14.01,2013-09-04 04:51:00,
2013-09-04 00:52:00,62.7,57.8,29.78,NW,311,0.0,0.0,84,0.00,,SKC,0.00,VWS V14.01,2013-09-04 04:52:00,
2013-09-04 00:53:00,62.6,58.0,29.78,NW,311,0.0,0.0,85,0.00,,SKC,0.00,VWS V14.01,2013-09-04 04:53:00,
2013-09-04 00:56:00,62.6,57.7,29.78,NW,311,0.0,0.0,84,0.00,,SKC,0.00,VWS V14.01,2013-09-04 04:56:00,
2013-09-04 00:58:00,62.6,57.7,29.78,NW,311,0.0,0.0,84,0.00,,SKC,0.00,VWS V14.01,2013-09-04 04:58:00,
2013-09-04 00:59:00,62.4,57.5,29.78,NW,311,0.0,0.0,84,0.00,,SKC,0.00,VWS V14.01,2013-09-04 04:59:00,
2013-09-04 01:00:00,62.4,57.5,29.78,NW,311,0.0,0.0,84,0.00,,SKC,0.00,VWS V14.01,2013-09-04 05:00:00,
2013-09-04 01:01:00,62.4,57.5,29.78,NW,311,0.0,0.0,84,0.00,,SKC,0.00,VWS V14.01,2013-09-04 05:01:00,
2013-09-04 01:03:00,62.4,57.5,29.78,NW,309,0.0,0.0,84,0.00,,SKC,0.00,VWS V14.01,2013-09-04 05:03:00,
2013-09-04 01:04:00,62.4,57.5,29.78,NW,309,0.0,0.0,84,0.00,,SKC,0.00,VWS V14.01,2013-09-04 05:04:00,
2013-09-04 01:05:00,62.3,57.4,29.78,NW,311,0.0,0.0,84,0.00,,SKC,0.00,VWS V14.01,2013-09-04 05:05:00,
2013-09-04 01:06:00,62.3,57.4,29.78,NW,312,0.0,0.0,84,0.00,,SKC,0.00,VWS V14.01,2013-09-04 05:06:00,
2013-09-04 01:09:00,62.3,57.4,29.78,NW,312,0.0,0.0,84,0.00,,SKC,0.00,VWS V14.01,2013-09-04 05:09:00,
2013-09-04 01:10:00,62.1,57.2,29.78,NW,311,0.0,0.0,84,0.00,,SKC,0.00,VWS V14.01,2013-09-04 05:10:00,
2013-09-04 01:11:00,62.1,57.2,29.78,NW,312,0.0,0.0,84,0.00,,SKC,0.00,VWS V14.01,2013-09-04 05:11:00,
2013-09-04 01:14:00,62.1,57.5,29.78,NW,313,0.0,0.0,85,0.00,,SKC,0.00,VWS V14.01,2013-09-04 05:14:00,
2013-09-04 01:15:00,62.1,57.5,29.78,NW,311,0.0,0.0,85,0.00,,SKC,0.00,VWS V14.01,2013-09-04 05:15:00,
2013-09-04 01:16:00,62.1,57.5,29.78,NW,312,0.0,0.0,85,0.00,,SKC,0.00,VWS V14.01,2013-09-04 05:16:00,
2013-09-04 01:17:00,62.1,57.5,29.78,NW,312,0.0,0.0,85,0.00,,SKC,0.00,VWS V14.01,2013-09-04 05:17:00,
2013-09-04 01:19:00,62.0,57.5,29.78,NW,311,0.0,0.0,85,0.00,,SKC,0.00,VWS V14.01,2013-09-04 05:19:00,
2013-09-04 01:20:00,62.0,57.5,29.78,NW,312,0.0,0.0,85,0.00,,SKC,0.00,VWS V14.01,2013-09-04 05:20:00,
2013-09-04 01:22:00,62.0,57.5,29.78,NW,312,0.0,0.0,85,0.00,,SKC,0.00,VWS V14.01,2013-09-04 05:22:00,
2013-09-04 01:25:00,62.0,57.5,29.78,NW,312,0.0,0.0,85,0.00,,SKC,0.00,VWS V14.01,2013-09-04 05:25:00,
2013-09-04 01:27:00,61.8,57.2,29.78,NW,312,0.0,0.0,85,0.00,,SKC,0.00,VWS V14.01,2013-09-04 05:27:00,
2013-09-04 01:28:00,61.8,57.2,29.78,NW,312,0.0,0.0,85,0.00,,SKC,0.00,VWS V14.01,2013-09-04 05:28:00,
2013-09-04 01:30:00,61.6,57.0,29.78,NW,311,0.0,0.0,85,0.00,,SKC,0.00,VWS V14.01,2013-09-04 05:30:00,
2013-09-04 01:32:00,61.6,57.4,29.78,NW,312,0.0,0.0,86,0.00,,SKC,0.00,VWS V14.01,2013-09-04 05:32:00,
2013-09-04 01:33:00,61.6,57.4,29.78,NW,312,0.0,0.0,86,0.00,,SKC,0.00,VWS V14.01,2013-09-04 05:33:00,
2013-09-04 01:34:00,61.6,57.4,29.78,NW,313,0.0,0.0,86,0.00,,SKC,0.00,VWS V14.01,2013-09-04 05:34:00,
2013-09-04 01:35:00,61.6,57.4,29.78,NW,313,0.0,0.0,86,0.00,,SKC,0.00,VWS V14.01,2013-09-04 05:35:00,
2013-09-04 01:36:00,61.6,57.4,29.78,West,280,0.0,0.0,86,0.00,,SKC,0.00,VWS V14.01,2013-09-04 05:36:00,
2013-09-04 01:38:00,61.5,57.3,29.78,West,280,0.0,0.0,86,0.00,,SKC,0.00,VWS V14.01,2013-09-04 05:38:00,
2013-09-04 01:39:00,61.5,57.3,29.78,West,278,0.0,0.0,86,0.00,,SKC,0.00,VWS V14.01,2013-09-04 05:39:00,
2013-09-04 01:40:00,61.5,57.3,29.78,West,278,0.0,0.0,86,0.00,,SKC,0.00,VWS V14.01,2013-09-04 05:40:00,
2013-09-04 01:41:00,61.5,57.3,29.78,West,280,0.0,0.0,86,0.00,,SKC,0.00,VWS V14.01,2013-09-04 05:41:00,
2013-09-04 01:43:00,61.5,57.3,29.78,West,278,0.0,0.0,86,0.00,,SKC,0.00,VWS V14.01,2013-09-04 05:43:00,
2013-09-04 01:44:00,61.5,57.3,29.78,West,278,0.0,0.0,86,0.00,,SKC,0.00,VWS V14.01,2013-09-04 05:44:00,
2013-09-04 01:45:00,61.3,57.1,29.78,West,280,0.0,0.0,86,0.00,,SKC,0.00,VWS V14.01,2013-09-04 05:45:00,
2013-09-04 01:46:00,61.3,57.1,29.78,West,277,0.0,0.0,86,0.00,,SKC,0.00,VWS V14.01,2013-09-04 05:46:00,
2013-09-04 01:47:00,61.3,57.1,29.78,West,278,0.0,0.0,86,0.00,,SKC,0.00,VWS V14.01,2013-09-04 05:47:00,
2013-09-04 01:48:00,61.3,57.1,29.78,West,277,0.0,0.0,86,0.00,,SKC,0.00,VWS V14.01,2013-09-04 05:48:00,
2013-09-04 01:50:00,61.2,57.0,29.78,West,278,0.0,0.0,86,0.00,,SKC,0.00,VWS V14.01,2013-09-04 05:50:00,
2013-09-04 01:51:00,61.2,57.0,29.78,West,280,0.0,0.0,86,0.00,,SKC,0.00,VWS V14.01,2013-09-04 05:51:00,
2013-09-04 01:52:00,61.2,57.0,29.78,West,280,0.0,0.0,86,0.00,,SKC,0.00,VWS V14.01,2013-09-04 05:52:00,
2013-09-04 01:53:00,61.2,57.0,29.78,West,281,0.0,0.0,86,0.00,,SKC,0.00,VWS V14.01,2013-09-04 05:53:00,
2013-09-04 01:55:00,61.2,57.3,29.78,West,280,0.0,0.0,87,0.00,,SKC,0.00,VWS V14.01,2013-09-04 05:55:00,
2013-09-04 01:57:00,61.2,57.0,29.78,West,281,0.0,0.0,86,0.00,,SKC,0.00,VWS V14.01,2013-09-04 05:57:00,
2013-09-04 01:58:00,61.2,57.0,29.78,West,278,0.0,0.0,86,0.00,,SKC,0.00,VWS V14.01,2013-09-04 05:58:00,
2013-09-04 02:00:00,61.2,57.0,29.79,West,278,0.0,0.0,86,0.00,,SKC,0.00,VWS V14.01,2013-09-04 06:00:00,
2013-09-04 02:02:00,61.0,56.8,29.79,West,280,0.0,0.0,86,0.00,,SKC,0.00,VWS V14.01,2013-09-04 06:02:00,
2013-09-04 02:03:00,61.0,56.8,29.79,WNW,284,0.0,0.0,86,0.00,,SKC,0.00,VWS V14.01,2013-09-04 06:03:00,
2013-09-04 02:05:00,61.0,56.8,29.79,WNW,285,0.0,0.0,86,0.00,,SKC,0.00,VWS V14.01,2013-09-04 06:05:00,
2013-09-04 02:06:00,61.0,56.8,29.79,WNW,285,0.0,0.0,86,0.00,,SKC,0.00,VWS V14.01,2013-09-04 06:06:00,
2013-09-04 02:07:00,60.9,56.7,29.79,NW,304,0.0,1.0,86,0.00,,SKC,0.00,VWS V14.01,2013-09-04 06:07:00,
2013-09-04 02:08:00,60.9,56.7,29.79,NW,305,0.0,1.0,86,0.00,,SKC,0.00,VWS V14.01,2013-09-04 06:08:00,
2013-09-04 02:09:00,60.9,56.7,29.79,NW,305,0.0,1.0,86,0.00,,SKC,0.00,VWS V14.01,2013-09-04 06:09:00,
2013-09-04 02:10:00,60.9,57.0,29.79,SW,216,1.0,1.0,87,0.00,,SKC,0.00,VWS V14.01,2013-09-04 06:10:00,
2013-09-04 02:11:00,60.9,57.0,29.79,SW,215,0.0,0.0,87,0.00,,SKC,0.00,VWS V14.01,2013-09-04 06:11:00,
2013-09-04 02:13:00,60.9,57.0,29.79,SSW,213,0.0,0.0,87,0.00,,SKC,0.00,VWS V14.01,2013-09-04 06:13:00,
2013-09-04 02:15:00,60.9,57.0,29.79,SSW,213,0.0,0.0,87,0.00,,SKC,0.00,VWS V14.01,2013-09-04 06:15:00,
2013-09-04 02:17:00,60.9,57.0,29.79,SSW,212,0.0,0.0,87,0.00,,SKC,0.00,VWS V14.01,2013-09-04 06:17:00,
2013-09-04 02:18:00,60.9,57.0,29.79,SSW,213,0.0,0.0,87,0.00,,SKC,0.00,VWS V14.01,2013-09-04 06:18:00,
2013-09-04 02:19:00,60.9,57.0,29.79,SSW,213,0.0,0.0,87,0.00,,SKC,0.00,VWS V14.01,2013-09-04 06:19:00,
2013-09-04 02:20:00,60.9,57.3,29.79,SSW,212,0.0,0.0,88,0.00,,SKC,0.00,VWS V14.01,2013-09-04 06:20:00,
2013-09-04 02:23:00,60.7,56.8,29.79,SW,216,0.0,0.0,87,0.00,,SKC,0.00,VWS V14.01,2013-09-04 06:23:00,
2013-09-04 02:24:00,60.7,56.8,29.79,SW,215,0.0,0.0,87,0.00,,SKC,0.00,VWS V14.01,2013-09-04 06:24:00,
2013-09-04 02:25:00,60.7,56.8,29.79,SSW,213,0.0,0.0,87,0.00,,SKC,0.00,VWS V14.01,2013-09-04 06:25:00,
2013-09-04 02:29:00,60.7,56.8,29.79,SSW,213,0.0,0.0,87,0.00,,SKC,0.00,VWS V14.01,2013-09-04 06:29:00,
2013-09-04 02:30:00,60.5,56.6,29.79,SSW,210,0.0,0.0,87,0.00,,SKC,0.00,VWS V14.01,2013-09-04 06:30:00,
2013-09-04 02:31:00,60.5,56.6,29.79,SSW,212,0.0,0.0,87,0.00,,SKC,0.00,VWS V14.01,2013-09-04 06:31:00,
2013-09-04 02:32:00,60.5,56.6,29.79,SSW,210,0.0,0.0,87,0.00,,SKC,0.00,VWS V14.01,2013-09-04 06:32:00,
2013-09-04 02:34:00,60.5,56.6,29.79,SSW,213,0.0,0.0,87,0.00,,SKC,0.00,VWS V14.01,2013-09-04 06:34:00,
2013-09-04 02:35:00,60.5,56.6,29.79,SSW,212,0.0,0.0,87,0.00,,SKC,0.00,VWS V14.01,2013-09-04 06:35:00,
2013-09-04 02:36:00,60.5,56.6,29.79,SSW,213,0.0,0.0,87,0.00,,SKC,0.00,VWS V14.01,2013-09-04 06:36:00,
2013-09-04 02:37:00,60.5,56.6,29.79,SSW,213,0.0,0.0,87,0.00,,SKC,0.00,VWS V14.01,2013-09-04 06:37:00,
2013-09-04 02:39:00,60.4,56.5,29.79,SSW,212,0.0,0.0,87,0.00,,SKC,0.00,VWS V14.01,2013-09-04 06:39:00,
2013-09-04 02:41:00,60.4,56.5,29.79,SSW,213,0.0,0.0,87,0.00,,SKC,0.00,VWS V14.01,2013-09-04 06:41:00,
2013-09-04 02:42:00,60.4,56.5,29.79,SSW,213,0.0,0.0,87,0.00,,SKC,0.00,VWS V14.01,2013-09-04 06:42:00,
2013-09-04 02:44:00,60.4,56.5,29.79,SSW,212,0.0,0.0,87,0.00,,SKC,0.00,VWS V14.01,2013-09-04 06:44:00,
2013-09-04 02:45:00,60.4,56.5,29.79,SSW,212,0.0,0.0,87,0.00,,SKC,0.00,VWS V14.01,2013-09-04 06:45:00,
2013-09-04 02:47:00,60.4,56.8,29.79,SW,215,0.0,0.0,88,0.00,,SKC,0.00,VWS V14.01,2013-09-04 06:47:00,
2013-09-04 02:48:00,60.4,56.8,29.79,NNW,343,1.0,3.0,88,0.00,,SKC,0.00,VWS V14.01,2013-09-04 06:48:00,
2013-09-04 02:49:00,60.4,56.8,29.79,NNW,343,0.0,3.0,88,0.00,,SKC,0.00,VWS V14.01,2013-09-04 06:49:00,
2013-09-04 02:50:00,60.4,56.8,29.79,NNW,343,0.0,3.0,88,0.00,,SKC,0.00,VWS V14.01,2013-09-04 06:50:00,
2013-09-04 02:52:00,60.4,56.8,29.79,NNW,344,0.0,0.0,88,0.00,,SKC,0.00,VWS V14.01,2013-09-04 06:52:00,
2013-09-04 02:53:00,60.4,56.8,29.79,NNW,344,0.0,0.0,88,0.00,,SKC,0.00,VWS V14.01,2013-09-04 06:53:00,
2013-09-04 02:54:00,60.4,56.8,29.79,SSW,206,0.0,1.0,88,0.00,,SKC,0.00,VWS V14.01,2013-09-04 06:54:00,
2013-09-04 02:55:00,60.4,56.8,29.79,SSW,209,0.0,1.0,88,0.00,,SKC,0.00,VWS V14.01,2013-09-04 06:55:00,
2013-09-04 02:56:00,60.4,56.8,29.79,South,184,0.0,1.0,88,0.00,,SKC,0.00,VWS V14.01,2013-09-04 06:56:00,
2013-09-04 02:58:00,60.4,56.8,29.79,South,182,0.0,1.0,88,0.00,,SKC,0.00,VWS V14.01,2013-09-04 06:58:00,
2013-09-04 02:59:00,60.4,56.8,29.79,South,185,0.0,1.0,88,0.00,,SKC,0.00,VWS V14.01,2013-09-04 06:59:00,
2013-09-04 03:00:00,60.4,56.8,29.79,South,185,0.0,1.0,88,0.00,,SKC,0.00,VWS V14.01,2013-09-04 07:00:00,
2013-09-04 03:01:00,60.4,56.8,29.79,South,186,0.0,0.0,88,0.00,,SKC,0.00,VWS V14.01,2013-09-04 07:01:00,
2013-09-04 03:02:00,60.4,56.8,29.79,South,185,0.0,0.0,88,0.00,,SKC,0.00,VWS V14.01,2013-09-04 07:02:00,
2013-09-04 03:03:00,60.4,56.8,29.79,South,185,0.0,0.0,88,0.00,,SKC,0.00,VWS V14.01,2013-09-04 07:03:00,
2013-09-04 03:04:00,60.2,56.6,29.79,South,184,0.0,0.0,88,0.00,,SKC,0.00,VWS V14.01,2013-09-04 07:04:00,
2013-09-04 03:05:00,60.2,56.6,29.79,South,182,0.0,0.0,88,0.00,,SKC,0.00,VWS V14.01,2013-09-04 07:05:00,
2013-09-04 03:06:00,60.2,56.6,29.79,South,185,0.0,0.0,88,0.00,,SKC,0.00,VWS V14.01,2013-09-04 07:06:00,
2013-09-04 03:08:00,60.2,56.6,29.79,South,185,0.0,0.0,88,0.00,,SKC,0.00,VWS V14.01,2013-09-04 07:08:00,
2013-09-04 03:10:00,60.1,56.5,29.79,SSW,192,0.0,0.0,88,0.00,,SKC,0.00,VWS V14.01,2013-09-04 07:10:00,
2013-09-04 03:12:00,60.1,56.2,29.79,South,191,0.0,0.0,87,0.00,,SKC,0.00,VWS V14.01,2013-09-04 07:12:00,
2013-09-04 03:13:00,60.1,56.2,29.79,NNW,333,5.0,5.0,87,0.00,,SKC,0.00,VWS V14.01,2013-09-04 07:13:00,
2013-09-04 03:14:00,60.1,56.2,29.79,NW,322,0.0,5.0,87,0.00,,SKC,0.00,VWS V14.01,2013-09-04 07:14:00,
2013-09-04 03:15:00,60.1,56.2,29.79,NW,322,0.0,5.0,87,0.00,,SKC,0.00,VWS V14.01,2013-09-04 07:15:00,
2013-09-04 03:17:00,60.1,56.2,29.79,NW,323,0.0,1.0,87,0.00,,SKC,0.00,VWS V14.01,2013-09-04 07:17:00,
2013-09-04 03:18:00,59.9,56.0,29.79,NW,322,1.0,2.0,87,0.00,,SKC,0.00,VWS V14.01,2013-09-04 07:18:00,
2013-09-04 03:19:00,59.9,56.0,29.79,NW,322,0.0,2.0,87,0.00,,SKC,0.00,VWS V14.01,2013-09-04 07:19:00,
2013-09-04 03:20:00,59.9,56.0,29.79,NW,323,0.0,2.0,87,0.00,,SKC,0.00,VWS V14.01,2013-09-04 07:20:00,
2013-09-04 03:22:00,59.9,56.0,29.79,NW,322,0.0,0.0,87,0.00,,SKC,0.00,VWS V14.01,2013-09-04 07:22:00,
2013-09-04 03:23:00,59.9,56.0,29.79,NW,323,0.0,0.0,87,0.00,,SKC,0.00,VWS V14.01,2013-09-04 07:23:00,
2013-09-04 03:24:00,59.9,56.0,29.79,NW,322,0.0,0.0,87,0.00,,SKC,0.00,VWS V14.01,2013-09-04 07:24:00,
2013-09-04 03:26:00,59.9,56.0,29.79,NW,320,0.0,0.0,87,0.00,,SKC,0.00,VWS V14.01,2013-09-04 07:26:00,
2013-09-04 03:27:00,59.9,56.0,29.79,NW,323,0.0,0.0,87,0.00,,SKC,0.00,VWS V14.01,2013-09-04 07:27:00,
2013-09-04 03:28:00,59.9,56.0,29.79,NW,304,0.0,1.0,87,0.00,,SKC,0.00,VWS V14.01,2013-09-04 07:28:00,
2013-09-04 03:29:00,59.9,56.0,29.79,WNW,302,0.0,1.0,87,0.00,,SKC,0.00,VWS V14.01,2013-09-04 07:29:00,
2013-09-04 03:30:00,59.9,56.0,29.80,WNW,292,0.0,1.0,87,0.00,,SKC,0.00,VWS V14.01,2013-09-04 07:30:00,
2013-09-04 03:31:00,59.9,56.0,29.80,WNW,294,0.0,0.0,87,0.00,,SKC,0.00,VWS V14.01,2013-09-04 07:31:00,
2013-09-04 03:32:00,59.9,56.0,29.80,WNW,294,0.0,0.0,87,0.00,,SKC,0.00,VWS V14.01,2013-09-04 07:32:00,
2013-09-04 03:33:00,59.9,56.0,29.80,WNW,292,0.0,0.0,87,0.00,,SKC,0.00,VWS V14.01,2013-09-04 07:33:00,
2013-09-04 03:34:00,59.9,56.3,29.80,WNW,291,0.0,0.0,88,0.00,,SKC,0.00,VWS V14.01,2013-09-04 07:34:00,
2013-09-04 03:35:00,59.9,56.3,29.80,WNW,294,0.0,0.0,88,0.00,,SKC,0.00,VWS V14.01,2013-09-04 07:35:00,
2013-09-04 03:36:00,59.9,56.3,29.80,WNW,294,0.0,0.0,88,0.00,,SKC,0.00,VWS V14.01,2013-09-04 07:36:00,
2013-09-04 03:38:00,59.9,56.3,29.80,WNW,296,0.0,0.0,88,0.00,,SKC,0.00,VWS V14.01,2013-09-04 07:38:00,
2013-09-04 03:39:00,59.9,56.3,29.80,WNW,296,0.0,0.0,88,0.00,,SKC,0.00,VWS V14.01,2013-09-04 07:39:00,
2013-09-04 03:40:00,59.8,56.2,29.80,WNW,295,0.0,0.0,88,0.00,,SKC,0.00,VWS V14.01,2013-09-04 07:40:00,
2013-09-04 03:41:00,59.8,56.2,29.80,WNW,295,0.0,0.0,88,0.00,,SKC,0.00,VWS V14.01,2013-09-04 07:41:00,
2013-09-04 03:43:00,59.8,56.2,29.80,WNW,296,0.0,0.0,88,0.00,,SKC,0.00,VWS V14.01,2013-09-04 07:43:00,
2013-09-04 03:44:00,59.8,56.2,29.80,WNW,299,0.0,0.0,88,0.00,,SKC,0.00,VWS V14.01,2013-09-04 07:44:00,
2013-09-04 03:45:00,59.8,56.2,29.80,WNW,298,0.0,0.0,88,0.00,,SKC,0.00,VWS V14.01,2013-09-04 07:45:00,
2013-09-04 03:46:00,59.8,56.2,29.80,WNW,299,0.0,0.0,88,0.00,,SKC,0.00,VWS V14.01,2013-09-04 07:46:00,
2013-09-04 03:49:00,59.8,56.2,29.80,WNW,299,0.0,0.0,88,0.00,,SKC,0.00,VWS V14.01,2013-09-04 07:49:00,
2013-09-04 03:50:00,59.9,56.3,29.80,WNW,298,0.0,0.0,88,0.00,,SKC,0.00,VWS V14.01,2013-09-04 07:50:00,
2013-09-04 03:51:00,59.8,56.2,29.80,WNW,298,0.0,0.0,88,0.00,,SKC,0.00,VWS V14.01,2013-09-04 07:51:00,
2013-09-04 03:52:00,59.8,56.2,29.80,WNW,299,0.0,0.0,88,0.00,,SKC,0.00,VWS V14.01,2013-09-04 07:52:00,
2013-09-04 03:54:00,59.8,56.2,29.80,WNW,299,0.0,0.0,88,0.00,,SKC,0.00,VWS V14.01,2013-09-04 07:54:00,
2013-09-04 03:55:00,59.8,56.2,29.80,WNW,299,0.0,0.0,88,0.00,,SKC,0.00,VWS V14.01,2013-09-04 07:55:00,
2013-09-04 03:56:00,59.8,56.2,29.80,WNW,299,0.0,0.0,88,0.00,,SKC,0.00,VWS V14.01,2013-09-04 07:56:00,
2013-09-04 03:57:00,59.8,56.2,29.80,WNW,299,0.0,0.0,88,0.00,,SKC,0.00,VWS V14.01,2013-09-04 07:57:00,
2013-09-04 03:58:00,59.8,56.2,29.80,WNW,296,0.0,0.0,88,0.00,,SKC,0.00,VWS V14.01,2013-09-04 07:58:00,
2013-09-04 04:00:00,59.6,56.0,29.80,WNW,295,0.0,0.0,88,0.00,,SKC,0.00,VWS V14.01,2013-09-04 08:00:00,
2013-09-04 04:01:00,59.6,56.0,29.80,WNW,294,0.0,0.0,88,0.00,,SKC,0.00,VWS V14.01,2013-09-04 08:01:00,
2013-09-04 04:02:00,59.6,56.0,29.80,WNW,294,0.0,0.0,88,0.00,,SKC,0.00,VWS V14.01,2013-09-04 08:02:00,
2013-09-04 04:05:00,59.6,56.0,29.80,WNW,295,0.0,0.0,88,0.00,,SKC,0.00,VWS V14.01,2013-09-04 08:05:00,
2013-09-04 04:06:00,59.6,56.0,29.80,WNW,292,0.0,0.0,88,0.00,,SKC,0.00,VWS V14.01,2013-09-04 08:06:00,
2013-09-04 04:07:00,59.6,56.0,29.80,WNW,292,0.0,0.0,88,0.00,,SKC,0.00,VWS V14.01,2013-09-04 08:07:00,
2013-09-04 04:10:00,59.5,56.3,29.80,WNW,292,0.0,0.0,89,0.00,,SKC,0.00,VWS V14.01,2013-09-04 08:10:00,
2013-09-04 04:11:00,59.5,56.3,29.80,WNW,294,0.0,0.0,89,0.00,,SKC,0.00,VWS V14.01,2013-09-04 08:11:00,
2013-09-04 04:12:00,59.5,56.3,29.80,WNW,295,0.0,0.0,89,0.00,,SKC,0.00,VWS V14.01,2013-09-04 08:12:00,
2013-09-04 04:13:00,59.5,56.3,29.80,WNW,294,0.0,0.0,89,0.00,,SKC,0.00,VWS V14.01,2013-09-04 08:13:00,
2013-09-04 04:15:00,59.3,56.1,29.81,WNW,294,0.0,0.0,89,0.00,,SKC,0.00,VWS V14.01,2013-09-04 08:15:00,
2013-09-04 04:16:00,59.3,56.1,29.81,WNW,294,0.0,0.0,89,0.00,,SKC,0.00,VWS V14.01,2013-09-04 08:16:00,
2013-09-04 04:17:00,59.3,56.1,29.81,WNW,292,0.0,0.0,89,0.00,,SKC,0.00,VWS V14.01,2013-09-04 08:17:00,
2013-09-04 04:18:00,59.3,56.1,29.81,WNW,291,0.0,0.0,89,0.00,,SKC,0.00,VWS V14.01,2013-09-04 08:18:00,
2013-09-04 04:19:00,59.3,56.1,29.81,WNW,294,0.0,0.0,89,0.00,,SKC,0.00,VWS V14.01,2013-09-04 08:19:00,
2013-09-04 04:21:00,59.3,56.1,29.81,WNW,294,0.0,0.0,89,0.00,,SKC,0.00,VWS V14.01,2013-09-04 08:21:00,
2013-09-04 04:22:00,59.3,56.1,29.81,WNW,292,0.0,0.0,89,0.00,,SKC,0.00,VWS V14.01,2013-09-04 08:22:00,
2013-09-04 04:23:00,59.3,56.1,29.81,WNW,294,0.0,0.0,89,0.00,,SKC,0.00,VWS V14.01,2013-09-04 08:23:00,
2013-09-04 04:25:00,59.3,56.1,29.81,WNW,292,0.0,0.0,89,0.00,,SKC,0.00,VWS V14.01,2013-09-04 08:25:00,
2013-09-04 04:26:00,59.3,56.1,29.81,WNW,292,0.0,0.0,89,0.00,,SKC,0.00,VWS V14.01,2013-09-04 08:26:00,
2013-09-04 04:27:00,59.3,56.1,29.81,WNW,292,0.0,0.0,89,0.00,,SKC,0.00,VWS V14.01,2013-09-04 08:27:00,
2013-09-04 04:28:00,59.3,56.4,29.81,WNW,291,0.0,0.0,90,0.00,,SKC,0.00,VWS V14.01,2013-09-04 08:28:00,
2013-09-04 04:31:00,59.2,56.3,29.81,WNW,292,0.0,0.0,90,0.00,,SKC,0.00,VWS V14.01,2013-09-04 08:31:00,
2013-09-04 04:32:00,59.2,56.3,29.81,WNW,292,0.0,0.0,90,0.00,,SKC,0.00,VWS V14.01,2013-09-04 08:32:00,
2013-09-04 04:34:00,59.2,56.0,29.81,WNW,292,0.0,0.0,89,0.00,,SKC,0.00,VWS V14.01,2013-09-04 08:34:00,
2013-09-04 04:36:00,59.2,56.3,29.81,WNW,292,0.0,0.0,90,0.00,,SKC,0.00,VWS V14.01,2013-09-04 08:36:00,
2013-09-04 04:37:00,59.0,56.1,29.81,WNW,291,0.0,0.0,90,0.00,,SKC,0.00,VWS V14.01,2013-09-04 08:37:00,
2013-09-04 04:38:00,59.0,56.1,29.81,WNW,292,0.0,0.0,90,0.00,,SKC,0.00,VWS V14.01,2013-09-04 08:38:00,
2013-09-04 04:39:00,59.0,56.1,29.81,WNW,291,0.0,0.0,90,0.00,,SKC,0.00,VWS V14.01,2013-09-04 08:39:00,
2013-09-04 04:42:00,59.0,56.1,29.81,WNW,291,0.0,0.0,90,0.00,,SKC,0.00,VWS V14.01,2013-09-04 08:42:00,
2013-09-04 04:43:00,59.0,56.1,29.81,WNW,292,0.0,0.0,90,0.00,,SKC,0.00,VWS V14.01,2013-09-04 08:43:00,
2013-09-04 04:44:00,59.0,56.1,29.81,WNW,292,0.0,0.0,90,0.00,,SKC,0.00,VWS V14.01,2013-09-04 08:44:00,
2013-09-04 04:48:00,59.0,56.1,29.82,WNW,292,0.0,0.0,90,0.00,,SKC,0.00,VWS V14.01,2013-09-04 08:48:00,
2013-09-04 04:49:00,59.0,56.1,29.82,WNW,291,0.0,0.0,90,0.00,,SKC,0.00,VWS V14.01,2013-09-04 08:49:00,
2013-09-04 04:50:00,58.9,56.0,29.82,WNW,294,0.0,0.0,90,0.00,,SKC,0.00,VWS V14.01,2013-09-04 08:50:00,
2013-09-04 04:53:00,58.9,56.0,29.82,WNW,294,0.0,0.0,90,0.00,,SKC,0.00,VWS V14.01,2013-09-04 08:53:00,
2013-09-04 04:54:00,58.9,56.0,29.82,WNW,292,0.0,0.0,90,0.00,,SKC,0.00,VWS V14.01,2013-09-04 08:54:00,
2013-09-04 04:55:00,58.9,56.0,29.82,WNW,292,0.0,0.0,90,0.00,,SKC,0.00,VWS V14.01,2013-09-04 08:55:00,
2013-09-04 04:56:00,58.7,55.8,29.82,WNW,294,0.0,0.0,90,0.00,,SKC,0.00,VWS V14.01,2013-09-04 08:56:00,
2013-09-04 04:58:00,58.7,55.8,29.82,WNW,294,0.0,0.0,90,0.00,,SKC,0.00,VWS V14.01,2013-09-04 08:58:00,
2013-09-04 05:00:00,58.7,55.8,29.82,WNW,294,0.0,0.0,90,0.00,,SKC,0.00,VWS V14.01,2013-09-04 09:00:00,
2013-09-04 05:03:00,58.7,55.8,29.82,WNW,292,0.0,0.0,90,0.00,,SKC,0.00,VWS V14.01,2013-09-04 09:03:00,
2013-09-04 05:04:00,58.7,55.8,29.82,WNW,294,0.0,0.0,90,0.00,,SKC,0.00,VWS V14.01,2013-09-04 09:04:00,
2013-09-04 05:05:00,58.6,55.7,29.82,WNW,292,0.0,0.0,90,0.00,,SKC,0.00,VWS V14.01,2013-09-04 09:05:00,
2013-09-04 05:08:00,58.6,56.0,29.82,WNW,291,0.0,0.0,91,0.00,,SKC,0.00,VWS V14.01,2013-09-04 09:08:00,
2013-09-04 05:09:00,58.4,55.8,29.82,WNW,291,0.0,0.0,91,0.00,,SKC,0.00,VWS V14.01,2013-09-04 09:09:00,
2013-09-04 05:10:00,58.4,55.8,29.82,WNW,292,0.0,0.0,91,0.00,,SKC,0.00,VWS V14.01,2013-09-04 09:10:00,
2013-09-04 05:11:00,58.4,55.8,29.82,WNW,291,0.0,0.0,91,0.00,,SKC,0.00,VWS V14.01,2013-09-04 09:11:00,
2013-09-04 05:13:00,58.4,55.8,29.82,WNW,292,0.0,0.0,91,0.00,,SKC,0.00,VWS V14.01,2013-09-04 09:13:00,
2013-09-04 05:15:00,58.4,55.8,29.82,WNW,292,0.0,0.0,91,0.00,,SKC,0.00,VWS V14.01,2013-09-04 09:15:00,
2013-09-04 05:16:00,58.4,55.8,29.82,WNW,292,0.0,0.0,91,0.00,,SKC,0.00,VWS V14.01,2013-09-04 09:16:00,
2013-09-04 05:18:00,58.3,55.7,29.82,WNW,292,0.0,0.0,91,0.00,,SKC,0.00,VWS V14.01,2013-09-04 09:18:00,
2013-09-04 05:19:00,58.3,55.7,29.82,WNW,291,0.0,0.0,91,0.00,,SKC,0.00,VWS V14.01,2013-09-04 09:19:00,
2013-09-04 05:20:00,58.3,55.7,29.82,WNW,292,0.0,0.0,91,0.00,,SKC,0.00,VWS V14.01,2013-09-04 09:20:00,
2013-09-04 05:21:00,58.3,55.7,29.82,WNW,291,0.0,0.0,91,0.00,,SKC,0.00,VWS V14.01,2013-09-04 09:21:00,
2013-09-04 05:23:00,58.3,55.7,29.82,WNW,291,0.0,0.0,91,0.00,,SKC,0.00,VWS V14.01,2013-09-04 09:23:00,
2013-09-04 05:24:00,58.3,55.7,29.82,WNW,292,0.0,0.0,91,0.00,,SKC,0.00,VWS V14.01,2013-09-04 09:24:00,
2013-09-04 05:25:00,58.3,55.7,29.82,WNW,292,0.0,0.0,91,0.00,,SKC,0.00,VWS V14.01,2013-09-04 09:25:00,
2013-09-04 05:27:00,58.3,55.7,29.82,WNW,294,0.0,0.0,91,0.00,,SKC,0.00,VWS V14.01,2013-09-04 09:27:00,
2013-09-04 05:28:00,58.3,55.7,29.82,WNW,294,0.0,0.0,91,0.00,,SKC,0.00,VWS V14.01,2013-09-04 09:28:00,
2013-09-04 05:30:00,58.3,55.7,29.82,WNW,294,0.0,0.0,91,0.00,,SKC,0.00,VWS V14.01,2013-09-04 09:30:00,
2013-09-04 05:31:00,58.3,55.7,29.82,WNW,294,0.0,0.0,91,0.00,,SKC,0.00,VWS V14.01,2013-09-04 09:31:00,
2013-09-04 05:32:00,58.3,55.7,29.82,NW,313,1.0,2.0,91,0.00,,SKC,0.00,VWS V14.01,2013-09-04 09:32:00,
2013-09-04 05:35:00,58.3,55.7,29.82,NW,313,0.0,2.0,91,0.00,,SKC,0.00,VWS V14.01,2013-09-04 09:35:00,
2013-09-04 05:36:00,58.3,55.7,29.82,NW,312,0.0,0.0,91,0.00,,SKC,0.00,VWS V14.01,2013-09-04 09:36:00,
2013-09-04 05:38:00,58.3,55.7,29.82,NW,312,0.0,1.0,91,0.00,,SKC,0.00,VWS V14.01,2013-09-04 09:38:00,
2013-09-04 05:40:00,58.3,55.7,29.82,NW,313,0.0,1.0,91,0.00,,SKC,0.00,VWS V14.01,2013-09-04 09:40:00,
2013-09-04 05:41:00,58.3,55.7,29.82,NW,315,0.0,0.0,91,0.00,,SKC,0.00,VWS V14.01,2013-09-04 09:41:00,
2013-09-04 05:43:00,58.3,55.7,29.82,NW,313,0.0,0.0,91,0.00,,SKC,0.00,VWS V14.01,2013-09-04 09:43:00,
2013-09-04 05:44:00,58.3,55.7,29.82,NW,315,0.0,0.0,91,0.00,,SKC,0.00,VWS V14.01,2013-09-04 09:44:00,
2013-09-04 05:46:00,58.3,55.7,29.83,NW,312,0.0,0.0,91,0.00,,SKC,0.00,VWS V14.01,2013-09-04 09:46:00,
2013-09-04 05:47:00,58.3,55.7,29.83,NW,315,0.0,0.0,91,0.00,,SKC,0.00,VWS V14.01,2013-09-04 09:47:00,
2013-09-04 05:49:00,58.3,55.7,29.83,NW,315,0.0,0.0,91,0.00,,SKC,0.00,VWS V14.01,2013-09-04 09:49:00,
2013-09-04 05:50:00,58.3,55.7,29.83,NW,313,0.0,0.0,91,0.00,,SKC,0.00,VWS V14.01,2013-09-04 09:50:00,
2013-09-04 05:51:00,58.3,55.7,29.83,NW,313,0.0,0.0,91,0.00,,SKC,0.00,VWS V14.01,2013-09-04 09:51:00,
2013-09-04 05:53:00,58.1,55.5,29.83,NW,312,0.0,0.0,91,0.00,,SKC,0.00,VWS V14.01,2013-09-04 09:53:00,
2013-09-04 05:55:00,58.1,55.5,29.83,NW,315,0.0,0.0,91,0.00,,SKC,0.00,VWS V14.01,2013-09-04 09:55:00,
2013-09-04 05:56:00,58.1,55.5,29.83,NW,315,0.0,0.0,91,0.00,,SKC,0.00,VWS V14.01,2013-09-04 09:56:00,
2013-09-04 05:57:00,58.1,55.5,29.83,NW,315,0.0,0.0,91,0.00,,SKC,0.00,VWS V14.01,2013-09-04 09:57:00,
2013-09-04 05:59:00,58.1,55.5,29.83,NW,315,0.0,0.0,91,0.00,,SKC,0.00,VWS V14.01,2013-09-04 09:59:00,
2013-09-04 06:00:00,58.1,55.5,29.83,NW,315,0.0,0.0,91,0.00,,SKC,0.00,VWS V14.01,2013-09-04 10:00:00,
2013-09-04 06:01:00,58.1,55.5,29.83,NW,315,0.0,0.0,91,0.00,,SKC,0.00,VWS V14.01,2013-09-04 10:01:00,
2013-09-04 06:02:00,58.1,55.5,29.83,NW,312,0.0,0.0,91,0.00,,SKC,0.00,VWS V14.01,2013-09-04 10:02:00,
2013-09-04 06:04:00,58.1,55.5,29.83,NW,315,0.0,0.0,91,0.00,,SKC,0.00,VWS V14.01,2013-09-04 10:04:00,
2013-09-04 06:05:00,58.1,55.5,29.83,NW,315,0.0,0.0,91,0.00,,SKC,0.00,VWS V14.01,2013-09-04 10:05:00,
2013-09-04 06:06:00,58.1,55.5,29.83,NW,315,0.0,0.0,91,0.00,,SKC,0.00,VWS V14.01,2013-09-04 10:06:00,
2013-09-04 06:07:00,58.1,55.5,29.83,NNW,328,0.0,1.0,91,0.00,,SKC,0.00,VWS V14.01,2013-09-04 10:07:00,
2013-09-04 06:09:00,58.1,55.5,29.83,NW,326,0.0,1.0,91,0.00,,SKC,0.00,VWS V14.01,2013-09-04 10:09:00,
2013-09-04 06:10:00,58.1,55.5,29.83,NW,326,0.0,1.0,91,0.00,,SKC,0.00,VWS V14.01,2013-09-04 10:10:00,
2013-09-04 06:11:00,58.1,55.5,29.83,NW,326,0.0,0.0,91,0.00,,SKC,0.00,VWS V14.01,2013-09-04 10:11:00,
2013-09-04 06:12:00,58.1,55.5,29.83,NW,326,0.0,0.0,91,0.00,,SKC,0.00,VWS V14.01,2013-09-04 10:12:00,
2013-09-04 06:14:00,58.1,55.5,29.83,NW,326,0.0,0.0,91,0.00,,SKC,0.00,VWS V14.01,2013-09-04 10:14:00,
2013-09-04 06:16:00,58.1,55.5,29.84,NW,325,0.0,0.0,91,0.00,,SKC,0.00,VWS V14.01,2013-09-04 10:16:00,
2013-09-04 06:17:00,58.1,55.5,29.84,NW,325,0.0,0.0,91,0.00,,SKC,0.00,VWS V14.01,2013-09-04 10:17:00,
2013-09-04 06:18:00,58.1,55.5,29.84,NNW,342,1.0,2.0,91,0.00,,SKC,0.00,VWS V14.01,2013-09-04 10:18:00,
2013-09-04 06:19:00,58.1,55.5,29.84,NNW,342,0.0,2.0,91,0.00,,SKC,0.00,VWS V14.01,2013-09-04 10:19:00,
2013-09-04 06:22:00,58.1,55.5,29.84,NNW,340,0.0,0.0,91,0.00,,SKC,0.00,VWS V14.01,2013-09-04 10:22:00,
2013-09-04 06:23:00,58.1,55.5,29.84,NNW,342,0.0,0.0,91,0.00,,SKC,0.00,VWS V14.01,2013-09-04 10:23:00,
2013-09-04 06:24:00,58.1,55.5,29.84,NNW,342,0.0,0.0,91,0.00,,SKC,0.00,VWS V14.01,2013-09-04 10:24:00,
2013-09-04 06:25:00,58.1,55.5,29.84,NNW,342,0.0,0.0,91,0.00,,SKC,0.00,VWS V14.01,2013-09-04 10:25:00,
2013-09-04 06:27:00,58.1,55.5,29.84,NNW,340,0.0,0.0,91,0.00,,SKC,0.00,VWS V14.01,2013-09-04 10:27:00,
2013-09-04 06:28:00,58.1,55.5,29.84,NNW,342,0.0,0.0,91,0.00,,SKC,0.00,VWS V14.01,2013-09-04 10:28:00,
2013-09-04 06:30:00,58.1,55.5,29.84,NNW,342,0.0,0.0,91,0.00,,SKC,0.00,VWS V14.01,2013-09-04 10:30:00,
2013-09-04 06:31:00,58.3,55.7,29.84,NNW,342,0.0,0.0,91,0.00,,SKC,0.00,VWS V14.01,2013-09-04 10:31:00,
2013-09-04 06:32:00,58.3,55.7,29.84,NNW,342,0.0,0.0,91,0.00,,SKC,0.00,VWS V14.01,2013-09-04 10:32:00,
2013-09-04 06:33:00,58.3,55.7,29.84,NNW,342,0.0,0.0,91,0.00,,SKC,0.00,VWS V14.01,2013-09-04 10:33:00,
2013-09-04 06:34:00,58.3,55.7,29.84,NNW,340,0.0,0.0,91,0.00,,SKC,0.00,VWS V14.01,2013-09-04 10:34:00,
2013-09-04 06:35:00,58.3,55.7,29.84,NNW,342,0.0,0.0,91,0.00,,SKC,0.00,VWS V14.01,2013-09-04 10:35:00,
2013-09-04 06:37:00,58.3,55.7,29.84,NW,306,0.0,2.0,91,0.00,,SKC,0.00,VWS V14.01,2013-09-04 10:37:00,
2013-09-04 06:38:00,58.3,55.7,29.84,NW,306,0.0,2.0,91,0.00,,SKC,0.00,VWS V14.01,2013-09-04 10:38:00,
2013-09-04 06:39:00,58.3,55.7,29.84,NW,308,0.0,2.0,91,0.00,,SKC,0.00,VWS V14.01,2013-09-04 10:39:00,
2013-09-04 06:40:00,58.3,55.7,29.84,NW,308,0.0,2.0,91,0.00,,SKC,0.00,VWS V14.01,2013-09-04 10:40:00,
2013-09-04 06:41:00,58.3,55.7,29.84,NW,308,0.0,0.0,91,0.00,,SKC,0.00,VWS V14.01,2013-09-04 10:41:00,
2013-09-04 06:42:00,58.3,55.7,29.84,NW,308,0.0,0.0,91,0.00,,SKC,0.00,VWS V14.01,2013-09-04 10:42:00,
2013-09-04 06:43:00,58.3,55.7,29.84,NW,309,0.0,0.0,91,0.00,,SKC,0.00,VWS V14.01,2013-09-04 10:43:00,
2013-09-04 06:45:00,58.3,55.7,29.85,NW,306,0.0,1.0,91,0.00,,SKC,0.00,VWS V14.01,2013-09-04 10:45:00,
2013-09-04 06:46:00,58.3,55.7,29.85,NW,309,0.0,0.0,91,0.00,,SKC,0.00,VWS V14.01,2013-09-04 10:46:00,
2013-09-04 06:47:00,58.3,55.7,29.85,NW,308,0.0,0.0,91,0.00,,SKC,0.00,VWS V14.01,2013-09-04 10:47:00,
2013-09-04 06:48:00,58.3,55.7,29.85,NW,308,0.0,0.0,91,0.00,,SKC,0.00,VWS V14.01,2013-09-04 10:48:00,
2013-09-04 06:49:00,58.3,55.7,29.85,NW,309,0.0,0.0,91,0.00,,SKC,0.00,VWS V14.01,2013-09-04 10:49:00,
2013-09-04 06:51:00,58.3,55.7,29.85,NW,309,0.0,0.0,91,0.00,,SKC,0.00,VWS V14.01,2013-09-04 10:51:00,
2013-09-04 06:52:00,58.3,55.7,29.85,NW,308,0.0,0.0,91,0.00,,SKC,0.00,VWS V14.01,2013-09-04 10:52:00,
2013-09-04 06:53:00,58.3,55.7,29.85,NW,308,0.0,0.0,91,0.00,,SKC,0.00,VWS V14.01,2013-09-04 10:53:00,
2013-09-04 06:54:00,58.3,55.7,29.85,NW,308,0.0,0.0,91,0.00,,SKC,0.00,VWS V14.01,2013-09-04 10:54:00,
2013-09-04 06:56:00,58.3,55.7,29.85,NW,308,0.0,0.0,91,0.00,,SKC,0.00,VWS V14.01,2013-09-04 10:56:00,
2013-09-04 06:57:00,58.3,56.0,29.85,NW,308,0.0,0.0,92,0.00,,SKC,0.00,VWS V14.01,2013-09-04 10:57:00,
2013-09-04 06:59:00,58.3,56.0,29.85,NW,308,0.0,0.0,92,0.00,,SKC,0.00,VWS V14.01,2013-09-04 10:59:00,
2013-09-04 07:01:00,58.4,56.1,29.85,NW,311,0.0,0.0,92,0.00,,SKC,0.00,VWS V14.01,2013-09-04 11:01:00,
2013-09-04 07:02:00,58.4,56.1,29.85,NW,309,0.0,0.0,92,0.00,,SKC,0.00,VWS V14.01,2013-09-04 11:02:00,
2013-09-04 07:03:00,58.4,56.1,29.85,NW,309,0.0,0.0,92,0.00,,SKC,0.00,VWS V14.01,2013-09-04 11:03:00,
2013-09-04 07:04:00,58.4,56.1,29.85,NW,308,0.0,0.0,92,0.00,,SKC,0.00,VWS V14.01,2013-09-04 11:04:00,
2013-09-04 07:07:00,58.6,56.3,29.85,WNW,302,0.0,0.0,92,0.00,,SKC,0.00,VWS V14.01,2013-09-04 11:07:00,
2013-09-04 07:08:00,58.7,56.4,29.85,WNW,301,0.0,0.0,92,0.00,,SKC,0.00,VWS V14.01,2013-09-04 11:08:00,
2013-09-04 07:09:00,58.7,56.4,29.85,WNW,301,0.0,0.0,92,0.00,,SKC,0.00,VWS V14.01,2013-09-04 11:09:00,
2013-09-04 07:12:00,58.9,56.6,29.85,WNW,301,0.0,0.0,92,0.00,,SKC,0.00,VWS V14.01,2013-09-04 11:12:00,
2013-09-04 07:13:00,59.0,56.4,29.85,WNW,302,0.0,0.0,91,0.00,,SKC,0.00,VWS V14.01,2013-09-04 11:13:00,
2013-09-04 07:14:00,59.0,56.4,29.85,WNW,299,0.0,0.0,91,0.00,,SKC,0.00,VWS V14.01,2013-09-04 11:14:00,
2013-09-04 07:15:00,59.0,56.4,29.85,NW,308,1.0,1.0,91,0.00,,SKC,0.00,VWS V14.01,2013-09-04 11:15:00,
2013-09-04 07:17:00,59.2,56.6,29.85,NW,309,0.0,1.0,91,0.00,,SKC,0.00,VWS V14.01,2013-09-04 11:17:00,
2013-09-04 07:18:00,59.3,56.7,29.85,NW,309,0.0,1.0,91,0.00,,SKC,0.00,VWS V14.01,2013-09-04 11:18:00,
2013-09-04 07:19:00,59.3,56.7,29.85,NW,309,0.0,1.0,91,0.00,,SKC,0.00,VWS V14.01,2013-09-04 11:19:00,
2013-09-04 07:20:00,59.3,56.7,29.85,NW,309,0.0,1.0,91,0.00,,SKC,0.00,VWS V14.01,2013-09-04 11:20:00,
2013-09-04 07:21:00,59.5,56.9,29.85,NW,309,0.0,0.0,91,0.00,,SKC,0.00,VWS V14.01,2013-09-04 11:21:00,
2013-09-04 07:22:00,59.6,57.0,29.85,NW,308,0.0,0.0,91,0.00,,SKC,0.00,VWS V14.01,2013-09-04 11:22:00,
2013-09-04 07:23:00,59.6,56.7,29.85,NW,309,0.0,0.0,90,0.00,,SKC,0.00,VWS V14.01,2013-09-04 11:23:00,
2013-09-04 07:24:00,59.6,56.7,29.85,NW,306,0.0,0.0,90,0.00,,SKC,0.00,VWS V14.01,2013-09-04 11:24:00,
2013-09-04 07:25:00,59.8,56.9,29.85,NW,309,0.0,0.0,90,0.00,,SKC,0.00,VWS V14.01,2013-09-04 11:25:00,
2013-09-04 07:26:00,59.8,56.9,29.85,NW,306,0.0,0.0,90,0.00,,SKC,0.00,VWS V14.01,2013-09-04 11:26:00,
2013-09-04 07:27:00,59.9,57.0,29.85,NW,308,0.0,0.0,90,0.00,,SKC,0.00,VWS V14.01,2013-09-04 11:27:00,
2013-09-04 07:28:00,59.9,57.0,29.85,NW,306,0.0,0.0,90,0.00,,SKC,0.00,VWS V14.01,2013-09-04 11:28:00,
2013-09-04 07:31:00,60.1,56.8,29.85,NNW,329,0.0,0.0,89,0.00,,SKC,0.00,VWS V14.01,2013-09-04 11:31:00,
2013-09-04 07:32:00,60.2,57.0,29.85,WNW,285,0.0,1.0,89,0.00,,SKC,0.00,VWS V14.01,2013-09-04 11:32:00,
2013-09-04 07:33:00,60.2,57.0,29.85,WNW,285,1.0,1.0,89,0.00,,SKC,0.00,VWS V14.01,2013-09-04 11:33:00,
2013-09-04 07:35:00,60.4,57.2,29.85,WNW,284,0.0,1.0,89,0.00,,SKC,0.00,VWS V14.01,2013-09-04 11:35:00,
2013-09-04 07:36:00,60.5,57.2,29.85,WNW,284,0.0,0.0,89,0.00,,SKC,0.00,VWS V14.01,2013-09-04 11:36:00,
2013-09-04 07:37:00,60.5,56.9,29.85,WNW,285,0.0,0.0,88,0.00,,SKC,0.00,VWS V14.01,2013-09-04 11:37:00,
2013-09-04 07:38:00,60.7,57.1,29.85,WNW,282,0.0,0.0,88,0.00,,SKC,0.00,VWS V14.01,2013-09-04 11:38:00,
2013-09-04 07:42:00,60.9,57.3,29.85,WNW,282,0.0,0.0,88,0.00,,SKC,0.00,VWS V14.01,2013-09-04 11:42:00,
2013-09-04 07:43:00,61.0,57.4,29.85,NNW,344,1.0,3.0,88,0.00,,SKC,0.00,VWS V14.01,2013-09-04 11:43:00,
2013-09-04 07:44:00,61.0,57.1,29.85,North,357,1.0,3.0,87,0.00,,SKC,0.00,VWS V14.01,2013-09-04 11:44:00,
2013-09-04 07:47:00,61.2,57.3,29.86,North,357,0.0,1.0,87,0.00,,SKC,0.00,VWS V14.01,2013-09-04 11:47:00,
2013-09-04 07:48:00,61.3,57.4,29.86,North,357,0.0,1.0,87,0.00,,SKC,0.00,VWS V14.01,2013-09-04 11:48:00,
2013-09-04 07:49:00,61.5,57.6,29.86,SW,220,1.0,1.0,87,0.00,,SKC,0.00,VWS V14.01,2013-09-04 11:49:00,
2013-09-04 07:50:00,61.5,57.6,29.86,SW,220,0.0,1.0,87,0.00,,SKC,0.00,VWS V14.01,2013-09-04 11:50:00,
2013-09-04 07:52:00,61.6,57.4,29.86,SW,223,0.0,0.0,86,0.00,,SKC,0.00,VWS V14.01,2013-09-04 11:52:00,
2013-09-04 07:54:00,61.8,57.6,29.86,SW,224,0.0,0.0,86,0.00,,SKC,0.00,VWS V14.01,2013-09-04 11:54:00,
2013-09-04 07:56:00,62.1,57.9,29.86,SW,226,0.0,0.0,86,0.00,,SKC,0.00,VWS V14.01,2013-09-04 11:56:00,
2013-09-04 07:57:00,62.3,57.7,29.86,SW,224,0.0,0.0,85,0.00,,SKC,0.00,VWS V14.01,2013-09-04 11:57:00,
2013-09-04 07:58:00,62.4,57.8,29.86,SSW,206,1.0,1.0,85,0.00,,SKC,0.00,VWS V14.01,2013-09-04 11:58:00,
2013-09-04 07:59:00,62.4,57.8,29.86,SW,233,0.0,1.0,85,0.00,,SKC,0.00,VWS V14.01,2013-09-04 11:59:00,
2013-09-04 08:00:00,62.7,57.8,29.86,SW,227,0.0,1.0,84,0.00,,SKC,0.00,VWS V14.01,2013-09-04 12:00:00,
2013-09-04 08:01:00,62.7,57.8,29.86,SW,234,0.0,0.0,84,0.00,,SKC,0.00,VWS V14.01,2013-09-04 12:01:00,
2013-09-04 08:02:00,63.1,58.2,29.86,WSW,251,0.0,0.0,84,0.00,,SKC,0.00,VWS V14.01,2013-09-04 12:02:00,
2013-09-04 08:03:00,63.2,58.3,29.86,WSW,253,0.0,0.0,84,0.00,,SKC,0.00,VWS V14.01,2013-09-04 12:03:00,
2013-09-04 08:04:00,63.2,58.3,29.86,WSW,254,0.0,0.0,84,0.00,,SKC,0.00,VWS V14.01,2013-09-04 12:04:00,
2013-09-04 08:05:00,63.4,58.5,29.86,WSW,248,0.0,0.0,84,0.00,,SKC,0.00,VWS V14.01,2013-09-04 12:05:00,
2013-09-04 08:06:00,63.5,58.6,29.86,West,274,0.0,0.0,84,0.00,,SKC,0.00,VWS V14.01,2013-09-04 12:06:00,
2013-09-04 08:07:00,63.7,58.1,29.86,West,265,1.0,2.0,82,0.00,,SKC,0.00,VWS V14.01,2013-09-04 12:07:00,
2013-09-04 08:09:00,64.0,58.4,29.86,WNW,287,0.0,2.0,82,0.00,,SKC,0.00,VWS V14.01,2013-09-04 12:09:00,
2013-09-04 08:10:00,64.3,58.3,29.86,SE,131,1.0,2.0,81,0.00,,SKC,0.00,VWS V14.01,2013-09-04 12:10:00,
2013-09-04 08:12:00,64.5,58.5,29.86,West,261,0.0,2.0,81,0.00,,SKC,0.00,VWS V14.01,2013-09-04 12:12:00,
2013-09-04 08:13:00,64.7,58.7,29.86,West,261,0.0,2.0,81,0.00,,SKC,0.00,VWS V14.01,2013-09-04 12:13:00,
2013-09-04 08:14:00,64.7,58.7,29.86,SW,220,0.0,2.0,81,0.00,,SKC,0.00,VWS V14.01,2013-09-04 12:14:00,
2013-09-04 08:15:00,64.8,58.5,29.86,WSW,250,0.0,2.0,80,0.00,,SKC,0.00,VWS V14.01,2013-09-04 12:15:00,
2013-09-04 08:16:00,65.0,58.7,29.86,WSW,247,0.0,0.0,80,0.00,,SKC,0.00,VWS V14.01,2013-09-04 12:16:00,
2013-09-04 08:17:00,65.2,58.5,29.86,SE,133,0.0,5.0,79,0.00,,SKC,0.00,VWS V14.01,2013-09-04 12:17:00,
2013-09-04 08:19:00,65.3,58.6,29.86,WNW,292,0.0,5.0,79,0.00,,SKC,0.00,VWS V14.01,2013-09-04 12:19:00,
2013-09-04 08:20:00,65.5,58.5,29.86,North,349,1.0,5.0,78,0.00,,SKC,0.00,VWS V14.01,2013-09-04 12:20:00,
2013-09-04 08:21:00,65.5,58.5,29.86,NW,312,0.0,1.0,78,0.00,,SKC,0.00,VWS V14.01,2013-09-04 12:21:00,
2013-09-04 08:23:00,65.6,58.6,29.86,SSW,196,0.0,1.0,78,0.00,,SKC,0.00,VWS V14.01,2013-09-04 12:23:00,
2013-09-04 08:24:00,65.8,58.8,29.86,SSW,198,0.0,1.0,78,0.00,,SKC,0.00,VWS V14.01,2013-09-04 12:24:00,
2013-09-04 08:26:00,65.8,58.8,29.86,NNW,335,0.0,1.0,78,0.00,,SKC,0.00,VWS V14.01,2013-09-04 12:26:00,
2013-09-04 08:27:00,66.0,59.0,29.86,NW,316,2.0,2.0,78,0.00,,SKC,0.00,VWS V14.01,2013-09-04 12:27:00,
2013-09-04 08:29:00,66.1,59.0,29.86,WNW,288,0.0,6.0,78,0.00,,SKC,0.00,VWS V14.01,2013-09-04 12:29:00,
2013-09-04 08:30:00,66.1,59.0,29.87,WNW,289,0.0,6.0,78,0.00,,SKC,0.00,VWS V14.01,2013-09-04 12:30:00,
2013-09-04 08:31:00,66.3,59.2,29.87,SE,133,6.0,6.0,78,0.00,,SKC,0.00,VWS V14.01,2013-09-04 12:31:00,
2013-09-04 08:32:00,66.3,58.9,29.87,SE,134,0.0,6.0,77,0.00,,SKC,0.00,VWS V14.01,2013-09-04 12:32:00,
2013-09-04 08:33:00,66.4,59.0,29.87,SE,133,0.0,6.0,77,0.00,,SKC,0.00,VWS V14.01,2013-09-04 12:33:00,
2013-09-04 08:34:00,66.4,59.3,29.87,WNW,288,0.0,6.0,78,0.00,,SKC,0.00,VWS V14.01,2013-09-04 12:34:00,
2013-09-04 08:35:00,66.6,59.2,29.87,WSW,254,1.0,6.0,77,0.00,,SKC,0.00,VWS V14.01,2013-09-04 12:35:00,
2013-09-04 08:36:00,66.6,59.2,29.87,West,275,0.0,2.0,77,0.00,,SKC,0.00,VWS V14.01,2013-09-04 12:36:00,
2013-09-04 08:37:00,66.6,58.8,29.87,West,275,0.0,2.0,76,0.00,,SKC,0.00,VWS V14.01,2013-09-04 12:37:00,
2013-09-04 08:39:00,66.8,59.0,29.87,West,265,0.0,2.0,76,0.00,,SKC,0.00,VWS V14.01,2013-09-04 12:39:00,
2013-09-04 08:40:00,66.9,59.1,29.87,West,265,0.0,2.0,76,0.00,,SKC,0.00,VWS V14.01,2013-09-04 12:40:00,
2013-09-04 08:41:00,66.9,59.1,29.87,West,263,0.0,1.0,76,0.00,,SKC,0.00,VWS V14.01,2013-09-04 12:41:00,
2013-09-04 08:42:00,66.9,59.1,29.87,West,264,1.0,1.0,76,0.00,,SKC,0.00,VWS V14.01,2013-09-04 12:42:00,
2013-09-04 08:44:00,67.3,59.5,29.87,WNW,285,1.0,3.0,76,0.00,,SKC,0.00,VWS V14.01,2013-09-04 12:44:00,
2013-09-04 08:45:00,67.3,59.5,29.87,North,349,0.0,3.0,76,0.00,,SKC,0.00,VWS V14.01,2013-09-04 12:45:00,
2013-09-04 08:46:00,67.4,59.6,29.87,NW,313,3.0,5.0,76,0.00,,SKC,0.00,VWS V14.01,2013-09-04 12:46:00,
2013-09-04 08:47:00,67.4,58.8,29.87,NW,312,1.0,5.0,74,0.00,,SKC,0.00,VWS V14.01,2013-09-04 12:47:00,
2013-09-04 08:49:00,67.6,59.4,29.87,SE,128,0.0,5.0,75,0.00,,SKC,0.00,VWS V14.01,2013-09-04 12:49:00,
2013-09-04 08:50:00,67.8,59.6,29.87,SE,130,0.0,0.0,75,0.00,,SKC,0.00,VWS V14.01,2013-09-04 12:50:00,
2013-09-04 08:51:00,67.8,59.2,29.87,SE,130,1.0,6.0,74,0.00,,SKC,0.00,VWS V14.01,2013-09-04 12:51:00,
2013-09-04 08:52:00,67.8,59.2,29.87,SSE,150,2.0,6.0,74,0.00,,SKC,0.00,VWS V14.01,2013-09-04 12:52:00,
2013-09-04 08:54:00,67.9,58.9,29.87,SSE,151,0.0,6.0,73,0.00,,SKC,0.00,VWS V14.01,2013-09-04 12:54:00,
2013-09-04 08:56:00,67.9,58.9,29.87,SE,143,6.0,6.0,73,0.00,,SKC,0.00,VWS V14.01,2013-09-04 12:56:00,
2013-09-04 08:57:00,67.8,58.8,29.87,NW,319,0.0,8.0,73,0.00,,SKC,0.00,VWS V14.01,2013-09-04 12:57:00,
2013-09-04 08:58:00,67.8,58.8,29.87,West,280,0.0,8.0,73,0.00,,SKC,0.00,VWS V14.01,2013-09-04 12:58:00,
2013-09-04 09:00:00,67.9,59.3,29.87,NNW,328,0.0,8.0,74,0.00,,SKC,0.00,VWS V14.01,2013-09-04 13:00:00,
2013-09-04 09:01:00,67.9,59.3,29.87,WNW,288,0.0,0.0,74,0.00,,SKC,0.00,VWS V14.01,2013-09-04 13:01:00,
2013-09-04 09:02:00,68.1,59.5,29.87,SE,130,5.0,5.0,74,0.00,,SKC,0.00,VWS V14.01,2013-09-04 13:02:00,
2013-09-04 09:05:00,68.3,59.3,29.87,SSW,200,1.0,5.0,73,0.00,,SKC,0.00,VWS V14.01,2013-09-04 13:05:00,
2013-09-04 09:06:00,68.4,59.4,29.87,SE,126,0.0,0.0,73,0.00,,SKC,0.00,VWS V14.01,2013-09-04 13:06:00,
2013-09-04 09:07:00,68.4,59.4,29.87,SE,128,0.0,0.0,73,0.00,,SKC,0.00,VWS V14.01,2013-09-04 13:07:00,
2013-09-04 09:08:00,68.6,59.6,29.87,NNW,336,7.0,7.0,73,0.00,,SKC,0.00,VWS V14.01,2013-09-04 13:08:00,
2013-09-04 09:10:00,68.6,59.2,29.87,SE,126,0.0,8.0,72,0.00,,SKC,0.00,VWS V14.01,2013-09-04 13:10:00,
2013-09-04 09:11:00,68.8,59.4,29.87,SE,126,0.0,0.0,72,0.00,,SKC,0.00,VWS V14.01,2013-09-04 13:11:00,
2013-09-04 09:12:00,68.9,59.5,29.87,ESE,119,0.0,2.0,72,0.00,,SKC,0.00,VWS V14.01,2013-09-04 13:12:00,
2013-09-04 09:13:00,68.9,59.5,29.87,ESE,119,0.0,2.0,72,0.00,,SKC,0.00,VWS V14.01,2013-09-04 13:13:00,
2013-09-04 09:16:00,69.1,59.3,29.88,SSE,154,0.0,0.0,71,0.00,,SKC,0.00,VWS V14.01,2013-09-04 13:16:00,
2013-09-04 09:18:00,69.1,59.3,29.88,NW,322,1.0,1.0,71,0.00,,SKC,0.00,VWS V14.01,2013-09-04 13:18:00,
2013-09-04 09:22:00,69.6,60.2,29.88,SE,133,0.0,6.0,72,0.00,,SKC,0.00,VWS V14.01,2013-09-04 13:22:00,
2013-09-04 09:23:00,69.6,60.2,29.88,North,353,2.0,6.0,72,0.00,,SKC,0.00,VWS V14.01,2013-09-04 13:23:00,
2013-09-04 09:24:00,69.6,60.2,29.88,NW,323,0.0,6.0,72,0.00,,SKC,0.00,VWS V14.01,2013-09-04 13:24:00,
2013-09-04 09:25:00,69.8,60.4,29.88,West,275,0.0,6.0,72,0.00,,SKC,0.00,VWS V14.01,2013-09-04 13:25:00,
2013-09-04 09:27:00,69.8,59.6,29.88,SE,140,0.0,3.0,70,0.00,,SKC,0.00,VWS V14.01,2013-09-04 13:27:00,
2013-09-04 09:28:00,69.9,59.7,29.88,SE,141,0.0,3.0,70,0.00,,SKC,0.00,VWS V14.01,2013-09-04 13:28:00,
2013-09-04 09:30:00,69.9,59.3,29.87,NNW,347,8.0,8.0,69,0.00,,SKC,0.00,VWS V14.01,2013-09-04 13:30:00,
2013-09-04 09:32:00,70.1,59.1,29.87,SE,128,0.0,0.0,68,0.00,,SKC,0.00,VWS V14.01,2013-09-04 13:32:00,
2013-09-04 09:33:00,70.4,59.8,29.87,SE,127,0.0,2.0,69,0.00,,SKC,0.00,VWS V14.01,2013-09-04 13:33:00,
2013-09-04 09:34:00,70.4,59.8,29.87,SE,127,0.0,2.0,69,0.00,,SKC,0.00,VWS V14.01,2013-09-04 13:34:00,
2013-09-04 09:35:00,70.4,59.8,29.87,SW,236,0.0,2.0,69,0.00,,SKC,0.00,VWS V14.01,2013-09-04 13:35:00,
2013-09-04 09:37:00,70.8,59.3,29.87,SW,230,0.0,1.0,67,0.00,,SKC,0.00,VWS V14.01,2013-09-04 13:37:00,
2013-09-04 09:38:00,70.8,59.3,29.87,SSE,148,0.0,1.0,67,0.00,,SKC,0.00,VWS V14.01,2013-09-04 13:38:00,
2013-09-04 09:39:00,70.8,59.3,29.87,SE,145,0.0,1.0,67,0.00,,SKC,0.00,VWS V14.01,2013-09-04 13:39:00,
2013-09-04 09:40:00,70.8,59.7,29.87,SE,145,0.0,1.0,68,0.00,,SKC,0.00,VWS V14.01,2013-09-04 13:40:00,
2013-09-04 09:42:00,70.9,59.8,29.87,SSE,167,0.0,0.0,68,0.00,,SKC,0.00,VWS V14.01,2013-09-04 13:42:00,
2013-09-04 09:44:00,70.9,59.4,29.87,SW,232,0.0,0.0,67,0.00,,SKC,0.00,VWS V14.01,2013-09-04 13:44:00,
2013-09-04 09:45:00,70.9,59.4,29.87,SW,227,0.0,0.0,67,0.00,,SKC,0.00,VWS V14.01,2013-09-04 13:45:00,
2013-09-04 09:46:00,70.9,59.8,29.87,WSW,248,0.0,0.0,68,0.00,,SKC,0.00,VWS V14.01,2013-09-04 13:46:00,
2013-09-04 09:49:00,70.8,59.3,29.87,NNW,333,2.0,3.0,67,0.00,,SKC,0.00,VWS V14.01,2013-09-04 13:49:00,
2013-09-04 09:51:00,70.8,59.3,29.87,NNW,335,0.0,0.0,67,0.00,,SKC,0.00,VWS V14.01,2013-09-04 13:51:00,
2013-09-04 09:52:00,70.8,59.3,29.87,North,356,0.0,6.0,67,0.00,,SKC,0.00,VWS V14.01,2013-09-04 13:52:00,
2013-09-04 09:54:00,70.9,59.0,29.87,North,349,0.0,6.0,66,0.00,,SKC,0.00,VWS V14.01,2013-09-04 13:54:00,
2013-09-04 09:55:00,70.9,59.0,29.87,NNW,346,0.0,6.0,66,0.00,,SKC,0.00,VWS V14.01,2013-09-04 13:55:00,
2013-09-04 09:56:00,71.1,58.8,29.87,SE,128,0.0,0.0,65,0.00,,SKC,0.00,VWS V14.01,2013-09-04 13:56:00,
2013-09-04 09:57:00,71.1,58.3,29.87,SE,131,0.0,0.0,64,0.00,,SKC,0.00,VWS V14.01,2013-09-04 13:57:00,
2013-09-04 09:59:00,71.3,58.5,29.87,NNW,329,0.0,5.0,64,0.00,,SKC,0.00,VWS V14.01,2013-09-04 13:59:00,
2013-09-04 10:00:00,71.3,58.5,29.87,NNW,343,0.0,5.0,64,0.00,,SKC,0.00,VWS V14.01,2013-09-04 14:00:00,
2013-09-04 10:01:00,71.5,58.7,29.87,SE,137,1.0,2.0,64,0.00,,SKC,0.00,VWS V14.01,2013-09-04 14:01:00,
2013-09-04 10:02:00,71.5,58.3,29.87,WSW,248,0.0,2.0,63,0.00,,SKC,0.00,VWS V14.01,2013-09-04 14:02:00,
2013-09-04 10:03:00,71.5,58.3,29.87,ESE,114,0.0,2.0,63,0.00,,SKC,0.00,VWS V14.01,2013-09-04 14:03:00,
2013-09-04 10:04:00,71.6,58.3,29.87,SE,130,0.0,2.0,63,0.00,,SKC,0.00,VWS V14.01,2013-09-04 14:04:00,
2013-09-04 10:05:00,71.6,58.3,29.87,ESE,121,0.0,2.0,63,0.00,,SKC,0.00,VWS V14.01,2013-09-04 14:05:00,
2013-09-04 10:06:00,71.6,58.3,29.87,SSW,200,0.0,0.0,63,0.00,,SKC,0.00,VWS V14.01,2013-09-04 14:06:00,
2013-09-04 10:07:00,71.8,59.0,29.87,SSW,199,0.0,0.0,64,0.00,,SKC,0.00,VWS V14.01,2013-09-04 14:07:00,
2013-09-04 10:09:00,71.8,58.5,29.87,SSE,150,1.0,2.0,63,0.00,,SKC,0.00,VWS V14.01,2013-09-04 14:09:00,
2013-09-04 10:10:00,72.0,58.3,29.87,North,354,2.0,3.0,62,0.00,,SKC,0.00,VWS V14.01,2013-09-04 14:10:00,
2013-09-04 10:12:00,72.1,58.4,29.87,SE,137,5.0,6.0,62,0.00,,SKC,0.00,VWS V14.01,2013-09-04 14:12:00,
2013-09-04 10:13:00,72.1,57.5,29.87,West,277,0.0,6.0,60,0.00,,SKC,0.00,VWS V14.01,2013-09-04 14:13:00,
2013-09-04 10:15:00,72.1,58.4,29.87,NNW,336,0.0,6.0,62,0.00,,SKC,0.00,VWS V14.01,2013-09-04 14:15:00,
2013-09-04 10:16:00,72.1,58.4,29.87,WSW,258,0.0,3.0,62,0.00,,SKC,0.00,VWS V14.01,2013-09-04 14:16:00,
2013-09-04 10:17:00,72.1,58.4,29.87,WSW,257,0.0,3.0,62,0.00,,SKC,0.00,VWS V14.01,2013-09-04 14:17:00,
2013-09-04 10:18:00,72.1,58.4,29.87,WSW,254,0.0,3.0,62,0.00,,SKC,0.00,VWS V14.01,2013-09-04 14:18:00,
2013-09-04 10:19:00,72.1,58.4,29.87,SSW,193,0.0,3.0,62,0.00,,SKC,0.00,VWS V14.01,2013-09-04 14:19:00,
2013-09-04 10:20:00,72.3,59.0,29.87,SSW,213,1.0,3.0,63,0.00,,SKC,0.00,VWS V14.01,2013-09-04 14:20:00,
2013-09-04 10:22:00,72.3,59.0,29.87,NW,323,0.0,8.0,63,0.00,,SKC,0.00,VWS V14.01,2013-09-04 14:22:00,
2013-09-04 10:23:00,72.3,58.6,29.87,ESE,116,1.0,8.0,62,0.00,,SKC,0.00,VWS V14.01,2013-09-04 14:23:00,
2013-09-04 10:24:00,72.3,58.1,29.87,ESE,110,0.0,8.0,61,0.00,,SKC,0.00,VWS V14.01,2013-09-04 14:24:00,
2013-09-04 10:25:00,72.5,58.3,29.87,ESE,117,0.0,8.0,61,0.00,,SKC,0.00,VWS V14.01,2013-09-04 14:25:00,
2013-09-04 10:27:00,72.5,58.8,29.87,North,356,1.0,4.0,62,0.00,,SKC,0.00,VWS V14.01,2013-09-04 14:27:00,
2013-09-04 10:28:00,72.7,58.9,29.87,NW,311,0.0,4.0,62,0.00,,SKC,0.00,VWS V14.01,2013-09-04 14:28:00,
2013-09-04 10:29:00,72.7,58.5,29.87,SSW,198,0.0,4.0,61,0.00,,SKC,0.00,VWS V14.01,2013-09-04 14:29:00,
2013-09-04 10:30:00,72.5,58.3,29.87,ESE,106,0.0,4.0,61,0.00,,SKC,0.00,VWS V14.01,2013-09-04 14:30:00,
2013-09-04 10:32:00,72.5,58.3,29.87,WSW,246,3.0,4.0,61,0.00,,SKC,0.00,VWS V14.01,2013-09-04 14:32:00,
2013-09-04 10:33:00,72.3,57.7,29.87,WSW,243,0.0,4.0,60,0.00,,SKC,0.00,VWS V14.01,2013-09-04 14:33:00,
2013-09-04 10:34:00,72.3,57.7,29.87,WSW,247,0.0,4.0,60,0.00,,SKC,0.00,VWS V14.01,2013-09-04 14:34:00,
2013-09-04 10:35:00,72.1,58.4,29.87,WSW,247,0.0,4.0,62,0.00,,SKC,0.00,VWS V14.01,2013-09-04 14:35:00,
2013-09-04 10:36:00,72.1,57.9,29.87,WSW,246,0.0,0.0,61,0.00,,SKC,0.00,VWS V14.01,2013-09-04 14:36:00,
2013-09-04 10:38:00,72.0,58.3,29.87,West,267,1.0,2.0,62,0.00,,SKC,0.00,VWS V14.01,2013-09-04 14:38:00,
2013-09-04 10:39:00,72.0,58.3,29.87,North,352,2.0,3.0,62,0.00,,SKC,0.00,VWS V14.01,2013-09-04 14:39:00,
2013-09-04 10:41:00,72.1,58.4,29.87,SSE,150,0.0,0.0,62,0.00,,SKC,0.00,VWS V14.01,2013-09-04 14:41:00,
2013-09-04 10:42:00,72.3,58.6,29.87,NNW,343,0.0,0.0,62,0.00,,SKC,0.00,VWS V14.01,2013-09-04 14:42:00,
2013-09-04 10:44:00,72.5,58.8,29.87,SW,224,0.0,1.0,62,0.00,,SKC,0.00,VWS V14.01,2013-09-04 14:44:00,
2013-09-04 10:46:00,72.5,58.8,29.87,SW,227,0.0,0.0,62,0.00,,SKC,0.00,VWS V14.01,2013-09-04 14:46:00,
2013-09-04 10:47:00,72.5,59.2,29.87,SE,143,1.0,1.0,63,0.00,,SKC,0.00,VWS V14.01,2013-09-04 14:47:00,
2013-09-04 10:49:00,72.7,59.4,29.87,North,357,0.0,5.0,63,0.00,,SKC,0.00,VWS V14.01,2013-09-04 14:49:00,
2013-09-04 10:50:00,72.7,58.5,29.87,WNW,292,0.0,5.0,61,0.00,,SKC,0.00,VWS V14.01,2013-09-04 14:50:00,
2013-09-04 10:52:00,72.8,58.6,29.87,SSE,158,0.0,2.0,61,0.00,,SKC,0.00,VWS V14.01,2013-09-04 14:52:00,
2013-09-04 10:53:00,72.8,58.6,29.87,SSE,158,0.0,2.0,61,0.00,,SKC,0.00,VWS V14.01,2013-09-04 14:53:00,
2013-09-04 10:54:00,73.0,58.8,29.87,SE,136,0.0,2.0,61,0.00,,SKC,0.00,VWS V14.01,2013-09-04 14:54:00,
2013-09-04 10:55:00,73.0,58.8,29.87,North,357,0.0,2.0,61,0.00,,SKC,0.00,VWS V14.01,2013-09-04 14:55:00,
2013-09-04 10:57:00,73.0,58.3,29.87,SSW,210,0.0,0.0,60,0.00,,SKC,0.00,VWS V14.01,2013-09-04 14:57:00,
2013-09-04 10:58:00,73.0,58.3,29.87,SSE,167,0.0,0.0,60,0.00,,SKC,0.00,VWS V14.01,2013-09-04 14:58:00,
2013-09-04 10:59:00,73.2,58.5,29.87,South,169,0.0,0.0,60,0.00,,SKC,0.00,VWS V14.01,2013-09-04 14:59:00,
2013-09-04 11:00:00,73.2,58.5,29.86,SSE,167,0.0,0.0,60,0.00,,SKC,0.00,VWS V14.01,2013-09-04 15:00:00,
2013-09-04 11:01:00,73.3,58.6,29.86,SSE,168,0.0,0.0,60,0.00,,SKC,0.00,VWS V14.01,2013-09-04 15:01:00,
2013-09-04 11:02:00,73.3,58.6,29.86,SSE,168,0.0,0.0,60,0.00,,SKC,0.00,VWS V14.01,2013-09-04 15:02:00,
2013-09-04 11:04:00,73.5,58.8,29.86,ESE,121,1.0,3.0,60,0.00,,SKC,0.00,VWS V14.01,2013-09-04 15:04:00,
2013-09-04 11:05:00,73.5,58.8,29.86,ESE,119,0.0,3.0,60,0.00,,SKC,0.00,VWS V14.01,2013-09-04 15:05:00,
2013-09-04 11:06:00,73.7,59.0,29.86,SE,126,0.0,0.0,60,0.00,,SKC,0.00,VWS V14.01,2013-09-04 15:06:00,
2013-09-04 11:07:00,73.7,58.0,29.86,SE,134,0.0,0.0,58,0.00,,SKC,0.00,VWS V14.01,2013-09-04 15:07:00,
2013-09-04 11:10:00,73.9,58.2,29.86,SE,137,0.0,1.0,58,0.00,,SKC,0.00,VWS V14.01,2013-09-04 15:10:00,
2013-09-04 11:11:00,74.0,59.2,29.86,South,189,0.0,0.0,60,0.00,,SKC,0.00,VWS V14.01,2013-09-04 15:11:00,
2013-09-04 11:12:00,74.0,59.2,29.86,WSW,254,1.0,1.0,60,0.00,,SKC,0.00,VWS V14.01,2013-09-04 15:12:00,
2013-09-04 11:13:00,74.0,59.2,29.86,WNW,299,0.0,3.0,60,0.00,,SKC,0.00,VWS V14.01,2013-09-04 15:13:00,
2013-09-04 11:15:00,74.0,58.8,29.86,NW,325,0.0,3.0,59,0.00,,SKC,0.00,VWS V14.01,2013-09-04 15:15:00,
2013-09-04 11:16:00,74.0,59.2,29.86,NW,325,0.0,0.0,60,0.00,,SKC,0.00,VWS V14.01,2013-09-04 15:16:00,
2013-09-04 11:17:00,74.0,59.2,29.86,WNW,282,0.0,0.0,60,0.00,,SKC,0.00,VWS V14.01,2013-09-04 15:17:00,
2013-09-04 11:18:00,74.0,59.2,29.86,West,280,0.0,0.0,60,0.00,,SKC,0.00,VWS V14.01,2013-09-04 15:18:00,
2013-09-04 11:20:00,73.9,58.2,29.86,WNW,291,0.0,2.0,58,0.00,,SKC,0.00,VWS V14.01,2013-09-04 15:20:00,
2013-09-04 11:21:00,73.9,58.2,29.86,WNW,292,0.0,0.0,58,0.00,,SKC,0.00,VWS V14.01,2013-09-04 15:21:00,
2013-09-04 11:22:00,73.9,58.2,29.86,WNW,296,2.0,3.0,58,0.00,,SKC,0.00,VWS V14.01,2013-09-04 15:22:00,
2013-09-04 11:23:00,73.9,58.2,29.86,North,357,0.0,3.0,58,0.00,,SKC,0.00,VWS V14.01,2013-09-04 15:23:00,
2013-09-04 11:26:00,74.0,57.8,29.86,NNW,329,2.0,3.0,57,0.00,,SKC,0.00,VWS V14.01,2013-09-04 15:26:00,
2013-09-04 11:27:00,74.0,58.3,29.86,NNW,329,0.0,3.0,58,0.00,,SKC,0.00,VWS V14.01,2013-09-04 15:27:00,
2013-09-04 11:28:00,74.2,58.5,29.86,SE,124,3.0,3.0,58,0.00,,SKC,0.00,VWS V14.01,2013-09-04 15:28:00,
2013-09-04 11:29:00,74.2,59.0,29.86,NNW,328,0.0,3.0,59,0.00,,SKC,0.00,VWS V14.01,2013-09-04 15:29:00,
2013-09-04 11:31:00,74.2,58.0,29.86,NNW,329,0.0,0.0,57,0.00,,SKC,0.00,VWS V14.01,2013-09-04 15:31:00,
2013-09-04 11:32:00,74.4,58.2,29.86,NNW,329,0.0,0.0,57,0.00,,SKC,0.00,VWS V14.01,2013-09-04 15:32:00,
2013-09-04 11:33:00,74.4,58.2,29.86,NNW,329,0.0,0.0,57,0.00,,SKC,0.00,VWS V14.01,2013-09-04 15:33:00,
2013-09-04 11:36:00,74.6,58.4,29.86,NW,326,0.0,0.0,57,0.00,,SKC,0.00,VWS V14.01,2013-09-04 15:36:00,
2013-09-04 11:38:00,74.6,57.9,29.86,WSW,237,0.0,1.0,56,0.00,,SKC,0.00,VWS V14.01,2013-09-04 15:38:00,
2013-09-04 11:39:00,74.4,56.7,29.86,South,185,1.0,1.0,54,0.00,,SKC,0.00,VWS V14.01,2013-09-04 15:39:00,
2013-09-04 11:41:00,74.4,57.7,29.86,SW,229,0.0,0.0,56,0.00,,SKC,0.00,VWS V14.01,2013-09-04 15:41:00,
2013-09-04 11:42:00,74.2,57.5,29.86,West,275,0.0,0.0,56,0.00,,SKC,0.00,VWS V14.01,2013-09-04 15:42:00,
2013-09-04 11:43:00,74.2,57.5,29.86,SSE,167,0.0,0.0,56,0.00,,SKC,0.00,VWS V14.01,2013-09-04 15:43:00,
2013-09-04 11:44:00,74.2,57.5,29.86,SSW,208,0.0,0.0,56,0.00,,SKC,0.00,VWS V14.01,2013-09-04 15:44:00,
2013-09-04 11:46:00,74.0,56.3,29.86,SSW,210,0.0,0.0,54,0.00,,SKC,0.00,VWS V14.01,2013-09-04 15:46:00,
2013-09-04 11:47:00,74.0,56.8,29.86,WSW,254,0.0,0.0,55,0.00,,SKC,0.00,VWS V14.01,2013-09-04 15:47:00,
2013-09-04 11:48:00,74.2,57.0,29.86,WSW,251,0.0,0.0,55,0.00,,SKC,0.00,VWS V14.01,2013-09-04 15:48:00,
2013-09-04 11:50:00,74.2,56.5,29.86,West,261,0.0,0.0,54,0.00,,SKC,0.00,VWS V14.01,2013-09-04 15:50:00,
2013-09-04 11:51:00,74.2,56.5,29.86,West,263,0.0,0.0,54,0.00,,SKC,0.00,VWS V14.01,2013-09-04 15:51:00,
2013-09-04 11:52:00,74.2,56.5,29.86,WNW,299,0.0,1.0,54,0.00,,SKC,0.00,VWS V14.01,2013-09-04 15:52:00,
2013-09-04 11:53:00,74.2,56.5,29.86,WNW,296,0.0,1.0,54,0.00,,SKC,0.00,VWS V14.01,2013-09-04 15:53:00,
2013-09-04 11:55:00,74.2,56.5,29.86,West,267,1.0,3.0,54,0.00,,SKC,0.00,VWS V14.01,2013-09-04 15:55:00,
2013-09-04 11:57:00,74.0,54.7,29.86,NW,322,2.0,6.0,51,0.00,,SKC,0.00,VWS V14.01,2013-09-04 15:57:00,
2013-09-04 11:59:00,74.0,54.7,29.86,SW,230,0.0,6.0,51,0.00,,SKC,0.00,VWS V14.01,2013-09-04 15:59:00,
2013-09-04 12:00:00,74.0,55.8,29.86,SSE,151,0.0,6.0,53,0.00,,SKC,0.00,VWS V14.01,2013-09-04 16:00:00,
2013-09-04 12:02:00,74.2,57.0,29.86,WSW,237,3.0,3.0,55,0.00,,SKC,0.00,VWS V14.01,2013-09-04 16:02:00,
2013-09-04 12:03:00,74.2,56.5,29.86,WSW,243,0.0,3.0,54,0.00,,SKC,0.00,VWS V14.01,2013-09-04 16:03:00,
2013-09-04 12:04:00,74.2,56.5,29.86,WSW,239,0.0,7.0,54,0.00,,SKC,0.00,VWS V14.01,2013-09-04 16:04:00,
2013-09-04 12:05:00,74.0,56.3,29.86,WSW,247,0.0,0.0,54,0.00,,SKC,0.00,VWS V14.01,2013-09-04 16:05:00,
2013-09-04 12:06:00,74.0,56.3,29.86,WSW,250,0.0,0.0,54,0.00,,SKC,0.00,VWS V14.01,2013-09-04 16:06:00,
2013-09-04 12:07:00,74.2,56.5,29.86,SE,127,0.0,0.0,54,0.00,,SKC,0.00,VWS V14.01,2013-09-04 16:07:00,
2013-09-04 12:08:00,74.2,56.5,29.86,ESE,110,0.0,1.0,54,0.00,,SKC,0.00,VWS V14.01,2013-09-04 16:08:00,
2013-09-04 12:10:00,74.6,56.9,29.86,ESE,109,4.0,5.0,54,0.00,,SKC,0.00,VWS V14.01,2013-09-04 16:10:00,
2013-09-04 12:11:00,74.7,55.9,29.86,ESE,112,0.0,0.0,52,0.00,,SKC,0.00,VWS V14.01,2013-09-04 16:11:00,
2013-09-04 12:13:00,75.1,56.8,29.86,NW,316,0.0,6.0,53,0.00,,SKC,0.00,VWS V14.01,2013-09-04 16:13:00,
2013-09-04 12:15:00,75.1,56.8,29.85,WNW,298,2.0,7.0,53,0.00,,SKC,0.00,VWS V14.01,2013-09-04 16:15:00,
2013-09-04 12:16:00,75.3,56.5,29.85,North,350,6.0,6.0,52,0.00,,SKC,0.00,VWS V14.01,2013-09-04 16:16:00,
2013-09-04 12:17:00,75.3,55.4,29.85,WNW,299,0.0,6.0,50,0.00,,SKC,0.00,VWS V14.01,2013-09-04 16:17:00,
2013-09-04 12:18:00,75.3,55.4,29.85,WNW,284,0.0,6.0,50,0.00,,SKC,0.00,VWS V14.01,2013-09-04 16:18:00,
2013-09-04 12:19:00,75.4,55.5,29.85,North,354,0.0,6.0,50,0.00,,SKC,0.00,VWS V14.01,2013-09-04 16:19:00,
2013-09-04 12:20:00,75.4,55.5,29.85,North,353,0.0,6.0,50,0.00,,SKC,0.00,VWS V14.01,2013-09-04 16:20:00,
2013-09-04 12:21:00,75.4,55.5,29.85,NW,323,2.0,4.0,50,0.00,,SKC,0.00,VWS V14.01,2013-09-04 16:21:00,
2013-09-04 12:24:00,75.8,55.3,29.85,SE,127,0.0,4.0,49,0.00,,SKC,0.00,VWS V14.01,2013-09-04 16:24:00,
2013-09-04 12:25:00,75.8,55.3,29.85,ESE,123,0.0,4.0,49,0.00,,SKC,0.00,VWS V14.01,2013-09-04 16:25:00,
2013-09-04 12:26:00,76.0,56.6,29.85,SE,124,0.0,1.0,51,0.00,,SKC,0.00,VWS V14.01,2013-09-04 16:26:00,
2013-09-04 12:29:00,75.8,57.5,29.85,SE,124,0.0,1.0,53,0.00,,SKC,0.00,VWS V14.01,2013-09-04 16:29:00,
2013-09-04 12:30:00,75.8,56.9,29.85,SSE,162,0.0,1.0,52,0.00,,SKC,0.00,VWS V14.01,2013-09-04 16:30:00,
2013-09-04 12:31:00,75.8,56.9,29.85,SSW,202,0.0,0.0,52,0.00,,SKC,0.00,VWS V14.01,2013-09-04 16:31:00,
2013-09-04 12:35:00,75.6,56.2,29.85,SW,234,0.0,0.0,51,0.00,,SKC,0.00,VWS V14.01,2013-09-04 16:35:00,
2013-09-04 12:36:00,75.6,55.7,29.85,SW,236,0.0,0.0,50,0.00,,SKC,0.00,VWS V14.01,2013-09-04 16:36:00,
2013-09-04 12:37:00,75.6,55.7,29.85,SW,234,0.0,0.0,50,0.00,,SKC,0.00,VWS V14.01,2013-09-04 16:37:00,
2013-09-04 12:40:00,75.8,55.9,29.85,NW,313,0.0,0.0,50,0.00,,SKC,0.00,VWS V14.01,2013-09-04 16:40:00,
2013-09-04 12:41:00,75.8,55.9,29.85,NW,311,0.0,0.0,50,0.00,,SKC,0.00,VWS V14.01,2013-09-04 16:41:00,
2013-09-04 12:42:00,75.8,55.9,29.85,NW,313,0.0,0.0,50,0.00,,SKC,0.00,VWS V14.01,2013-09-04 16:42:00,
2013-09-04 12:43:00,75.8,55.9,29.85,NW,312,0.0,0.0,50,0.00,,SKC,0.00,VWS V14.01,2013-09-04 16:43:00,
2013-09-04 12:45:00,75.8,55.9,29.85,NW,313,0.0,0.0,50,0.00,,SKC,0.00,VWS V14.01,2013-09-04 16:45:00,
2013-09-04 12:47:00,75.8,55.9,29.85,SSW,193,1.0,2.0,50,0.00,,SKC,0.00,VWS V14.01,2013-09-04 16:47:00,
2013-09-04 12:48:00,75.8,55.9,29.85,South,179,0.0,2.0,50,0.00,,SKC,0.00,VWS V14.01,2013-09-04 16:48:00,
2013-09-04 12:49:00,75.8,55.9,29.85,NNW,346,3.0,3.0,50,0.00,,SKC,0.00,VWS V14.01,2013-09-04 16:49:00,
2013-09-04 12:50:00,76.0,56.0,29.85,WSW,239,0.0,3.0,50,0.00,,SKC,0.00,VWS V14.01,2013-09-04 16:50:00,
2013-09-04 12:52:00,75.8,55.9,29.85,SSW,199,2.0,6.0,50,0.00,,SKC,0.00,VWS V14.01,2013-09-04 16:52:00,
2013-09-04 12:54:00,75.8,55.3,29.85,ESE,113,3.0,6.0,49,0.00,,SKC,0.00,VWS V14.01,2013-09-04 16:54:00,
2013-09-04 12:55:00,75.8,55.3,29.85,SSW,200,0.0,1.0,49,0.00,,SKC,0.00,VWS V14.01,2013-09-04 16:55:00,
2013-09-04 12:56:00,75.8,55.3,29.85,SSW,199,0.0,1.0,49,0.00,,SKC,0.00,VWS V14.01,2013-09-04 16:56:00,
2013-09-04 12:57:00,76.0,54.9,29.85,North,353,0.0,6.0,48,0.00,,SKC,0.00,VWS V14.01,2013-09-04 16:57:00,
2013-09-04 12:59:00,76.0,54.9,29.85,South,169,0.0,6.0,48,0.00,,SKC,0.00,VWS V14.01,2013-09-04 16:59:00,
2013-09-04 13:01:00,76.1,54.4,29.85,NW,305,0.0,2.0,47,0.00,,SKC,0.00,VWS V14.01,2013-09-04 17:01:00,
2013-09-04 13:02:00,76.1,54.4,29.85,SSE,157,0.0,3.0,47,0.00,,SKC,0.00,VWS V14.01,2013-09-04 17:02:00,
2013-09-04 13:03:00,76.3,54.6,29.85,SSW,198,0.0,3.0,47,0.00,,SKC,0.00,VWS V14.01,2013-09-04 17:03:00,
2013-09-04 13:05:00,76.1,55.0,29.85,WSW,239,0.0,3.0,48,0.00,,SKC,0.00,VWS V14.01,2013-09-04 17:05:00,
2013-09-04 13:06:00,76.1,55.6,29.85,WSW,239,0.0,0.0,49,0.00,,SKC,0.00,VWS V14.01,2013-09-04 17:06:00,
2013-09-04 13:07:00,76.1,55.6,29.85,WSW,237,0.0,0.0,49,0.00,,SKC,0.00,VWS V14.01,2013-09-04 17:07:00,
2013-09-04 13:08:00,76.1,55.6,29.85,SSW,202,0.0,0.0,49,0.00,,SKC,0.00,VWS V14.01,2013-09-04 17:08:00,
2013-09-04 13:10:00,76.1,55.6,29.85,SSW,205,0.0,0.0,49,0.00,,SKC,0.00,VWS V14.01,2013-09-04 17:10:00,
2013-09-04 13:11:00,76.1,55.6,29.85,WSW,253,0.0,0.0,49,0.00,,SKC,0.00,VWS V14.01,2013-09-04 17:11:00,
2013-09-04 13:12:00,76.1,55.6,29.85,West,272,0.0,0.0,49,0.00,,SKC,0.00,VWS V14.01,2013-09-04 17:12:00,
2013-09-04 13:13:00,76.3,55.8,29.85,North,357,0.0,3.0,49,0.00,,SKC,0.00,VWS V14.01,2013-09-04 17:13:00,
2013-09-04 13:14:00,76.3,55.2,29.85,SSW,208,0.0,3.0,48,0.00,,SKC,0.00,VWS V14.01,2013-09-04 17:14:00,
2013-09-04 13:15:00,76.3,55.2,29.85,SE,128,0.0,3.0,48,0.00,,SKC,0.00,VWS V14.01,2013-09-04 17:15:00,
2013-09-04 13:16:00,76.3,55.2,29.85,SE,130,0.0,2.0,48,0.00,,SKC,0.00,VWS V14.01,2013-09-04 17:16:00,
2013-09-04 13:18:00,76.3,55.8,29.85,SE,131,0.0,2.0,49,0.00,,SKC,0.00,VWS V14.01,2013-09-04 17:18:00,
2013-09-04 13:20:00,76.3,55.8,29.85,WNW,288,0.0,5.0,49,0.00,,SKC,0.00,VWS V14.01,2013-09-04 17:20:00,
2013-09-04 13:21:00,76.3,56.9,29.85,WNW,289,0.0,1.0,51,0.00,,SKC,0.00,VWS V14.01,2013-09-04 17:21:00,
2013-09-04 13:22:00,76.3,56.9,29.85,WNW,289,0.0,1.0,51,0.00,,SKC,0.00,VWS V14.01,2013-09-04 17:22:00,
2013-09-04 13:23:00,76.3,56.9,29.85,WNW,289,1.0,1.0,51,0.00,,SKC,0.00,VWS V14.01,2013-09-04 17:23:00,
2013-09-04 13:25:00,76.3,55.2,29.85,WSW,251,3.0,3.0,48,0.00,,SKC,0.00,VWS V14.01,2013-09-04 17:25:00,
2013-09-04 13:26:00,76.3,55.2,29.85,SE,145,2.0,3.0,48,0.00,,SKC,0.00,VWS V14.01,2013-09-04 17:26:00,
2013-09-04 13:28:00,76.3,56.3,29.85,SSE,167,2.0,3.0,50,0.00,,SKC,0.00,VWS V14.01,2013-09-04 17:28:00,
2013-09-04 13:29:00,76.3,56.3,29.85,NNW,344,0.0,3.0,50,0.00,,SKC,0.00,VWS V14.01,2013-09-04 17:29:00,
2013-09-04 13:31:00,76.5,57.0,29.84,WNW,291,1.0,2.0,51,0.00,,SKC,0.00,VWS V14.01,2013-09-04 17:31:00,
2013-09-04 13:32:00,76.5,57.0,29.84,SW,229,1.0,3.0,51,0.00,,SKC,0.00,VWS V14.01,2013-09-04 17:32:00,
2013-09-04 13:33:00,76.5,57.0,29.84,SSW,196,1.0,3.0,51,0.00,,SKC,0.00,VWS V14.01,2013-09-04 17:33:00,
2013-09-04 13:34:00,76.5,55.9,29.84,SSW,196,1.0,3.0,49,0.00,,SKC,0.00,VWS V14.01,2013-09-04 17:34:00,
2013-09-04 13:35:00,76.5,55.9,29.84,South,191,2.0,3.0,49,0.00,,SKC,0.00,VWS V14.01,2013-09-04 17:35:00,
2013-09-04 13:36:00,76.7,56.1,29.84,North,357,1.0,2.0,49,0.00,,SKC,0.00,VWS V14.01,2013-09-04 17:36:00,
2013-09-04 13:37:00,76.7,56.1,29.84,North,357,0.0,2.0,49,0.00,,SKC,0.00,VWS V14.01,2013-09-04 17:37:00,
2013-09-04 13:38:00,76.8,56.2,29.84,WNW,282,0.0,2.0,49,0.00,,SKC,0.00,VWS V14.01,2013-09-04 17:38:00,
2013-09-04 13:39:00,76.8,56.2,29.84,WNW,282,0.0,2.0,49,0.00,,SKC,0.00,VWS V14.01,2013-09-04 17:39:00,
2013-09-04 13:40:00,76.8,56.2,29.84,West,278,0.0,2.0,49,0.00,,SKC,0.00,VWS V14.01,2013-09-04 17:40:00,
2013-09-04 13:41:00,76.8,56.2,29.84,West,263,0.0,2.0,49,0.00,,SKC,0.00,VWS V14.01,2013-09-04 17:41:00,
2013-09-04 13:42:00,76.8,56.2,29.84,West,261,0.0,2.0,49,0.00,,SKC,0.00,VWS V14.01,2013-09-04 17:42:00,
2013-09-04 13:43:00,76.8,55.7,29.84,West,264,0.0,2.0,48,0.00,,SKC,0.00,VWS V14.01,2013-09-04 17:43:00,
2013-09-04 13:44:00,76.8,55.7,29.84,South,179,0.0,2.0,48,0.00,,SKC,0.00,VWS V14.01,2013-09-04 17:44:00,
2013-09-04 13:46:00,76.8,55.1,29.84,South,171,0.0,0.0,47,0.00,,SKC,0.00,VWS V14.01,2013-09-04 17:46:00,
2013-09-04 13:47:00,76.8,55.1,29.84,South,171,0.0,0.0,47,0.00,,SKC,0.00,VWS V14.01,2013-09-04 17:47:00,
2013-09-04 13:48:00,76.8,55.1,29.84,South,172,0.0,0.0,47,0.00,,SKC,0.00,VWS V14.01,2013-09-04 17:48:00,
2013-09-04 13:49:00,77.0,55.2,29.84,SSE,165,0.0,1.0,47,0.00,,SKC,0.00,VWS V14.01,2013-09-04 17:49:00,
2013-09-04 13:50:00,77.0,55.2,29.84,SSE,167,0.0,1.0,47,0.00,,SKC,0.00,VWS V14.01,2013-09-04 17:50:00,
2013-09-04 13:51:00,77.0,54.1,29.84,NW,309,2.0,2.0,45,0.00,,SKC,0.00,VWS V14.01,2013-09-04 17:51:00,
2013-09-04 13:53:00,77.2,54.2,29.84,NW,308,0.0,2.0,45,0.00,,SKC,0.00,VWS V14.01,2013-09-04 17:53:00,
2013-09-04 13:54:00,77.2,54.2,29.84,NNW,339,0.0,2.0,45,0.00,,SKC,0.00,VWS V14.01,2013-09-04 17:54:00,
2013-09-04 13:55:00,77.2,55.4,29.84,NNW,339,0.0,2.0,47,0.00,,SKC,0.00,VWS V14.01,2013-09-04 17:55:00,
2013-09-04 13:57:00,77.4,55.6,29.84,SSE,152,0.0,0.0,47,0.00,,SKC,0.00,VWS V14.01,2013-09-04 17:57:00,
2013-09-04 13:58:00,77.4,55.6,29.84,NNW,342,1.0,2.0,47,0.00,,SKC,0.00,VWS V14.01,2013-09-04 17:58:00,
2013-09-04 13:59:00,77.4,55.6,29.84,NNW,342,0.0,2.0,47,0.00,,SKC,0.00,VWS V14.01,2013-09-04 17:59:00,
2013-09-04 14:00:00,77.4,56.8,29.84,NW,308,1.0,2.0,49,0.00,,SKC,0.00,VWS V14.01,2013-09-04 18:00:00,
2013-09-04 14:01:00,77.4,56.8,29.84,NW,309,0.0,1.0,49,0.00,,SKC,0.00,VWS V14.01,2013-09-04 18:01:00,
2013-09-04 14:02:00,77.4,56.8,29.84,SE,130,6.0,8.0,49,0.00,,SKC,0.00,VWS V14.01,2013-09-04 18:02:00,
2013-09-04 14:03:00,77.2,57.1,29.84,North,354,0.0,8.0,50,0.00,,SKC,0.00,VWS V14.01,2013-09-04 18:03:00,
2013-09-04 14:04:00,77.2,56.6,29.84,North,356,0.0,8.0,49,0.00,,SKC,0.00,VWS V14.01,2013-09-04 18:04:00,
2013-09-04 14:05:00,77.2,56.6,29.84,North,357,0.0,8.0,49,0.00,,SKC,0.00,VWS V14.01,2013-09-04 18:05:00,
2013-09-04 14:06:00,77.2,57.1,29.84,SSW,195,0.0,0.0,50,0.00,,SKC,0.00,VWS V14.01,2013-09-04 18:06:00,
2013-09-04 14:09:00,77.2,58.2,29.84,WNW,287,0.0,0.0,52,0.00,,SKC,0.00,VWS V14.01,2013-09-04 18:09:00,
2013-09-04 14:10:00,77.0,58.0,29.84,WNW,287,0.0,1.0,52,0.00,,SKC,0.00,VWS V14.01,2013-09-04 18:10:00,
2013-09-04 14:11:00,77.0,55.8,29.84,West,281,0.0,1.0,48,0.00,,SKC,0.00,VWS V14.01,2013-09-04 18:11:00,
2013-09-04 14:14:00,76.8,56.2,29.84,NNW,329,2.0,2.0,49,0.00,,SKC,0.00,VWS V14.01,2013-09-04 18:14:00,
2013-09-04 14:15:00,76.8,56.2,29.84,NW,326,0.0,2.0,49,0.00,,SKC,0.00,VWS V14.01,2013-09-04 18:15:00,
2013-09-04 14:16:00,76.8,56.2,29.84,NW,311,0.0,0.0,49,0.00,,SKC,0.00,VWS V14.01,2013-09-04 18:16:00,
2013-09-04 14:17:00,76.8,55.7,29.84,NNW,343,6.0,6.0,48,0.00,,SKC,0.00,VWS V14.01,2013-09-04 18:17:00,
2013-09-04 14:19:00,76.8,55.7,29.84,SE,140,2.0,6.0,48,0.00,,SKC,0.00,VWS V14.01,2013-09-04 18:19:00,
2013-09-04 14:20:00,76.8,57.3,29.84,WNW,289,0.0,6.0,51,0.00,,SKC,0.00,VWS V14.01,2013-09-04 18:20:00,
2013-09-04 14:21:00,76.8,58.4,29.84,WNW,287,0.0,0.0,53,0.00,,SKC,0.00,VWS V14.01,2013-09-04 18:21:00,
2013-09-04 14:22:00,76.8,58.4,29.84,SW,234,0.0,0.0,53,0.00,,SKC,0.00,VWS V14.01,2013-09-04 18:22:00,
2013-09-04 14:23:00,76.7,58.3,29.84,SW,234,0.0,0.0,53,0.00,,SKC,0.00,VWS V14.01,2013-09-04 18:23:00,
2013-09-04 14:25:00,76.7,56.1,29.84,SW,233,0.0,0.0,49,0.00,,SKC,0.00,VWS V14.01,2013-09-04 18:25:00,
2013-09-04 14:27:00,76.8,55.7,29.84,SW,234,0.0,0.0,48,0.00,,SKC,0.00,VWS V14.01,2013-09-04 18:27:00,
2013-09-04 14:28:00,76.8,55.7,29.84,SW,234,0.0,0.0,48,0.00,,SKC,0.00,VWS V14.01,2013-09-04 18:28:00,
2013-09-04 14:30:00,76.8,56.8,29.84,South,188,0.0,1.0,50,0.00,,SKC,0.00,VWS V14.01,2013-09-04 18:30:00,
2013-09-04 14:31:00,76.8,55.1,29.84,South,188,0.0,0.0,47,0.00,,SKC,0.00,VWS V14.01,2013-09-04 18:31:00,
2013-09-04 14:32:00,76.8,55.1,29.84,South,189,0.0,0.0,47,0.00,,SKC,0.00,VWS V14.01,2013-09-04 18:32:00,
2013-09-04 14:34:00,76.8,55.7,29.84,South,189,0.0,0.0,48,0.00,,SKC,0.00,VWS V14.01,2013-09-04 18:34:00,
2013-09-04 14:35:00,76.8,55.7,29.84,West,264,0.0,3.0,48,0.00,,SKC,0.00,VWS V14.01,2013-09-04 18:35:00,
2013-09-04 14:36:00,76.8,55.7,29.84,West,267,0.0,0.0,48,0.00,,SKC,0.00,VWS V14.01,2013-09-04 18:36:00,
2013-09-04 14:37:00,76.8,55.7,29.84,WNW,289,6.0,6.0,48,0.00,,SKC,0.00,VWS V14.01,2013-09-04 18:37:00,
2013-09-04 14:38:00,76.7,55.5,29.84,WNW,288,0.0,6.0,48,0.00,,SKC,0.00,VWS V14.01,2013-09-04 18:38:00,
2013-09-04 14:39:00,76.7,55.5,29.84,WNW,287,0.0,6.0,48,0.00,,SKC,0.00,VWS V14.01,2013-09-04 18:39:00,
2013-09-04 14:41:00,76.8,56.8,29.84,WNW,289,0.0,0.0,50,0.00,,SKC,0.00,VWS V14.01,2013-09-04 18:41:00,
2013-09-04 14:42:00,76.8,56.8,29.84,WNW,289,0.0,0.0,50,0.00,,SKC,0.00,VWS V14.01,2013-09-04 18:42:00,
2013-09-04 14:44:00,76.8,56.8,29.84,WNW,291,0.0,0.0,50,0.00,,SKC,0.00,VWS V14.01,2013-09-04 18:44:00,
2013-09-04 14:46:00,76.8,56.8,29.84,WNW,291,0.0,0.0,50,0.00,,SKC,0.00,VWS V14.01,2013-09-04 18:46:00,
2013-09-04 14:47:00,76.8,57.3,29.84,WNW,289,0.0,1.0,51,0.00,,SKC,0.00,VWS V14.01,2013-09-04 18:47:00,
2013-09-04 14:48:00,76.8,56.8,29.84,WNW,289,0.0,1.0,50,0.00,,SKC,0.00,VWS V14.01,2013-09-04 18:48:00,
2013-09-04 14:49:00,76.8,56.8,29.84,WNW,284,0.0,1.0,50,0.00,,SKC,0.00,VWS V14.01,2013-09-04 18:49:00,
2013-09-04 14:51:00,77.0,57.5,29.84,WNW,301,1.0,1.0,51,0.00,,SKC,0.00,VWS V14.01,2013-09-04 18:51:00,
2013-09-04 14:52:00,77.0,57.5,29.84,WNW,299,0.0,1.0,51,0.00,,SKC,0.00,VWS V14.01,2013-09-04 18:52:00,
2013-09-04 14:53:00,77.0,57.5,29.84,WNW,301,0.0,1.0,51,0.00,,SKC,0.00,VWS V14.01,2013-09-04 18:53:00,
2013-09-04 14:54:00,77.0,57.5,29.84,WNW,292,0.0,3.0,51,0.00,,SKC,0.00,VWS V14.01,2013-09-04 18:54:00,
2013-09-04 14:55:00,77.0,57.5,29.84,WNW,299,0.0,0.0,51,0.00,,SKC,0.00,VWS V14.01,2013-09-04 18:55:00,
2013-09-04 14:57:00,77.0,56.4,29.84,SE,138,2.0,2.0,49,0.00,,SKC,0.00,VWS V14.01,2013-09-04 18:57:00,
2013-09-04 14:58:00,77.0,57.0,29.84,SSW,205,2.0,3.0,50,0.00,,SKC,0.00,VWS V14.01,2013-09-04 18:58:00,
2013-09-04 15:00:00,77.0,55.2,29.84,ESE,112,0.0,5.0,47,0.00,,SKC,0.00,VWS V14.01,2013-09-04 19:00:00,
2013-09-04 15:01:00,77.0,56.4,29.84,NNW,340,0.0,1.0,49,0.00,,SKC,0.00,VWS V14.01,2013-09-04 19:01:00,
2013-09-04 15:02:00,77.2,55.4,29.84,SE,144,0.0,1.0,47,0.00,,SKC,0.00,VWS V14.01,2013-09-04 19:02:00,
2013-09-04 15:03:00,77.2,55.4,29.84,SE,144,0.0,7.0,47,0.00,,SKC,0.00,VWS V14.01,2013-09-04 19:03:00,
2013-09-04 15:04:00,77.2,56.6,29.84,North,352,0.0,7.0,49,0.00,,SKC,0.00,VWS V14.01,2013-09-04 19:04:00,
2013-09-04 15:06:00,77.0,56.4,29.84,SW,223,1.0,3.0,49,0.00,,SKC,0.00,VWS V14.01,2013-09-04 19:06:00,
2013-09-04 15:07:00,77.0,56.4,29.84,SW,223,0.0,3.0,49,0.00,,SKC,0.00,VWS V14.01,2013-09-04 19:07:00,
2013-09-04 15:08:00,77.0,56.4,29.84,SW,223,0.0,3.0,49,0.00,,SKC,0.00,VWS V14.01,2013-09-04 19:08:00,
2013-09-04 15:10:00,77.0,56.4,29.84,SW,223,0.0,3.0,49,0.00,,SKC,0.00,VWS V14.01,2013-09-04 19:10:00,
2013-09-04 15:12:00,77.0,57.5,29.84,SW,223,0.0,0.0,51,0.00,,SKC,0.00,VWS V14.01,2013-09-04 19:12:00,
2013-09-04 15:13:00,77.0,57.5,29.84,SW,223,0.0,0.0,51,0.00,,SKC,0.00,VWS V14.01,2013-09-04 19:13:00,
2013-09-04 15:14:00,77.2,58.2,29.84,SSW,198,0.0,0.0,52,0.00,,SKC,0.00,VWS V14.01,2013-09-04 19:14:00,
2013-09-04 15:15:00,77.2,58.8,29.83,SSW,196,0.0,0.0,53,0.00,,SKC,0.00,VWS V14.01,2013-09-04 19:15:00,
2013-09-04 15:18:00,77.2,57.1,29.83,SSW,200,0.0,0.0,50,0.00,,SKC,0.00,VWS V14.01,2013-09-04 19:18:00,
2013-09-04 15:19:00,77.2,57.1,29.83,SSW,200,0.0,0.0,50,0.00,,SKC,0.00,VWS V14.01,2013-09-04 19:19:00,
2013-09-04 15:20:00,77.2,57.1,29.83,SSW,199,0.0,0.0,50,0.00,,SKC,0.00,VWS V14.01,2013-09-04 19:20:00,
2013-09-04 15:21:00,77.0,56.4,29.83,SSW,203,0.0,0.0,49,0.00,,SKC,0.00,VWS V14.01,2013-09-04 19:21:00,
2013-09-04 15:23:00,77.2,56.6,29.83,West,280,0.0,0.0,49,0.00,,SKC,0.00,VWS V14.01,2013-09-04 19:23:00,
2013-09-04 15:24:00,77.2,58.8,29.83,West,277,0.0,0.0,53,0.00,,SKC,0.00,VWS V14.01,2013-09-04 19:24:00,
2013-09-04 15:25:00,77.2,58.8,29.83,West,280,0.0,0.0,53,0.00,,SKC,0.00,VWS V14.01,2013-09-04 19:25:00,
2013-09-04 15:28:00,77.2,57.7,29.83,West,277,0.0,0.0,51,0.00,,SKC,0.00,VWS V14.01,2013-09-04 19:28:00,
2013-09-04 15:29:00,77.2,57.7,29.83,West,280,0.0,0.0,51,0.00,,SKC,0.00,VWS V14.01,2013-09-04 19:29:00,
2013-09-04 15:30:00,77.2,57.7,29.83,West,280,0.0,0.0,51,0.00,,SKC,0.00,VWS V14.01,2013-09-04 19:30:00,
2013-09-04 15:31:00,77.2,58.2,29.83,West,277,0.0,0.0,52,0.00,,SKC,0.00,VWS V14.01,2013-09-04 19:31:00,
2013-09-04 15:34:00,77.2,58.8,29.83,West,278,0.0,0.0,53,0.00,,SKC,0.00,VWS V14.01,2013-09-04 19:34:00,
2013-09-04 15:36:00,77.2,58.2,29.83,NW,308,2.0,2.0,52,0.00,,SKC,0.00,VWS V14.01,2013-09-04 19:36:00,
2013-09-04 15:37:00,77.2,57.1,29.83,WNW,299,0.0,2.0,50,0.00,,SKC,0.00,VWS V14.01,2013-09-04 19:37:00,
2013-09-04 15:39:00,77.2,58.8,29.83,WSW,257,0.0,4.0,53,0.00,,SKC,0.00,VWS V14.01,2013-09-04 19:39:00,
2013-09-04 15:40:00,77.2,58.8,29.83,WNW,285,0.0,4.0,53,0.00,,SKC,0.00,VWS V14.01,2013-09-04 19:40:00,
2013-09-04 15:41:00,77.0,56.4,29.83,WNW,285,0.0,0.0,49,0.00,,SKC,0.00,VWS V14.01,2013-09-04 19:41:00,
2013-09-04 15:44:00,77.0,58.0,29.83,WNW,285,0.0,0.0,52,0.00,,SKC,0.00,VWS V14.01,2013-09-04 19:44:00,
2013-09-04 15:45:00,77.0,58.0,29.84,WNW,285,0.0,0.0,52,0.00,,SKC,0.00,VWS V14.01,2013-09-04 19:45:00,
2013-09-04 15:47:00,77.0,58.0,29.84,WNW,285,0.0,0.0,52,0.00,,SKC,0.00,VWS V14.01,2013-09-04 19:47:00,
2013-09-04 15:49:00,77.0,58.0,29.84,WNW,284,0.0,0.0,52,0.00,,SKC,0.00,VWS V14.01,2013-09-04 19:49:00,
2013-09-04 15:50:00,77.2,58.2,29.84,WNW,284,0.0,0.0,52,0.00,,SKC,0.00,VWS V14.01,2013-09-04 19:50:00,
2013-09-04 15:51:00,77.2,58.2,29.84,WNW,284,0.0,0.0,52,0.00,,SKC,0.00,VWS V14.01,2013-09-04 19:51:00,
2013-09-04 15:52:00,77.2,58.2,29.84,WNW,285,1.0,1.0,52,0.00,,SKC,0.00,VWS V14.01,2013-09-04 19:52:00,
2013-09-04 15:54:00,77.0,55.2,29.84,WNW,298,0.0,3.0,47,0.00,,SKC,0.00,VWS V14.01,2013-09-04 19:54:00,
2013-09-04 15:55:00,77.2,54.8,29.84,WNW,295,3.0,3.0,46,0.00,,SKC,0.00,VWS V14.01,2013-09-04 19:55:00,
2013-09-04 15:56:00,77.2,54.8,29.84,WNW,295,1.0,3.0,46,0.00,,SKC,0.00,VWS V14.01,2013-09-04 19:56:00,
2013-09-04 15:58:00,77.0,55.8,29.84,WNW,292,2.0,3.0,48,0.00,,SKC,0.00,VWS V14.01,2013-09-04 19:58:00,
2013-09-04 15:59:00,77.0,55.8,29.84,WNW,294,0.0,3.0,48,0.00,,SKC,0.00,VWS V14.01,2013-09-04 19:59:00,
2013-09-04 16:00:00,77.2,56.0,29.83,WNW,292,0.0,3.0,48,0.00,,SKC,0.00,VWS V14.01,2013-09-04 20:00:00,
2013-09-04 16:01:00,77.0,55.8,29.83,West,268,0.0,0.0,48,0.00,,SKC,0.00,VWS V14.01,2013-09-04 20:01:00,
2013-09-04 16:04:00,77.0,55.8,29.83,SW,232,0.0,0.0,48,0.00,,SKC,0.00,VWS V14.01,2013-09-04 20:04:00,
2013-09-04 16:05:00,77.2,56.0,29.83,SW,234,0.0,0.0,48,0.00,,SKC,0.00,VWS V14.01,2013-09-04 20:05:00,
2013-09-04 16:06:00,77.2,56.0,29.83,NW,305,0.0,1.0,48,0.00,,SKC,0.00,VWS V14.01,2013-09-04 20:06:00,
2013-09-04 16:07:00,77.2,56.6,29.83,WNW,302,0.0,1.0,49,0.00,,SKC,0.00,VWS V14.01,2013-09-04 20:07:00,
2013-09-04 16:09:00,77.2,56.6,29.83,NW,305,0.0,1.0,49,0.00,,SKC,0.00,VWS V14.01,2013-09-04 20:09:00,
2013-09-04 16:10:00,77.2,56.6,29.83,NW,305,0.0,1.0,49,0.00,,SKC,0.00,VWS V14.01,2013-09-04 20:10:00,
2013-09-04 16:11:00,77.2,57.1,29.83,NW,306,0.0,0.0,50,0.00,,SKC,0.00,VWS V14.01,2013-09-04 20:11:00,
2013-09-04 16:15:00,77.2,58.8,29.83,NNW,337,1.0,5.0,53,0.00,,SKC,0.00,VWS V14.01,2013-09-04 20:15:00,
2013-09-04 16:16:00,77.2,58.8,29.83,NNW,337,2.0,2.0,53,0.00,,SKC,0.00,VWS V14.01,2013-09-04 20:16:00,
2013-09-04 16:17:00,77.0,57.0,29.83,WSW,258,0.0,2.0,50,0.00,,SKC,0.00,VWS V14.01,2013-09-04 20:17:00,
2013-09-04 16:18:00,77.0,56.4,29.83,SSE,167,2.0,2.0,49,0.00,,SKC,0.00,VWS V14.01,2013-09-04 20:18:00,
2013-09-04 16:20:00,77.0,57.5,29.83,SSE,165,0.0,0.0,51,0.00,,SKC,0.00,VWS V14.01,2013-09-04 20:20:00,
2013-09-04 16:21:00,77.0,57.0,29.83,SSE,167,0.0,0.0,50,0.00,,SKC,0.00,VWS V14.01,2013-09-04 20:21:00,
2013-09-04 16:22:00,77.0,57.0,29.83,SSE,165,0.0,0.0,50,0.00,,SKC,0.00,VWS V14.01,2013-09-04 20:22:00,
2013-09-04 16:23:00,77.0,57.0,29.83,ESE,116,0.0,2.0,50,0.00,,SKC,0.00,VWS V14.01,2013-09-04 20:23:00,
2013-09-04 16:26:00,76.8,55.1,29.83,WSW,248,0.0,1.0,47,0.00,,SKC,0.00,VWS V14.01,2013-09-04 20:26:00,
2013-09-04 16:27:00,76.8,55.1,29.83,WSW,250,0.0,1.0,47,0.00,,SKC,0.00,VWS V14.01,2013-09-04 20:27:00,
2013-09-04 16:28:00,77.0,56.4,29.83,WSW,248,0.0,1.0,49,0.00,,SKC,0.00,VWS V14.01,2013-09-04 20:28:00,
2013-09-04 16:29:00,77.0,56.4,29.83,WSW,248,0.0,1.0,49,0.00,,SKC,0.00,VWS V14.01,2013-09-04 20:29:00,
2013-09-04 16:31:00,77.0,56.4,29.84,WSW,254,0.0,1.0,49,0.00,,SKC,0.00,VWS V14.01,2013-09-04 20:31:00,
2013-09-04 16:32:00,77.0,56.4,29.84,WSW,254,0.0,1.0,49,0.00,,SKC,0.00,VWS V14.01,2013-09-04 20:32:00,
2013-09-04 16:33:00,77.0,56.4,29.84,West,280,1.0,1.0,49,0.00,,SKC,0.00,VWS V14.01,2013-09-04 20:33:00,
2013-09-04 16:34:00,77.0,56.4,29.84,WSW,258,0.0,1.0,49,0.00,,SKC,0.00,VWS V14.01,2013-09-04 20:34:00,
2013-09-04 16:35:00,77.0,57.0,29.84,WSW,239,3.0,3.0,50,0.00,,SKC,0.00,VWS V14.01,2013-09-04 20:35:00,
2013-09-04 16:36:00,76.8,56.8,29.84,SW,236,0.0,3.0,50,0.00,,SKC,0.00,VWS V14.01,2013-09-04 20:36:00,
2013-09-04 16:37:00,76.8,56.8,29.84,SW,236,1.0,3.0,50,0.00,,SKC,0.00,VWS V14.01,2013-09-04 20:37:00,
2013-09-04 16:38:00,77.0,58.0,29.84,SW,236,0.0,3.0,52,0.00,,SKC,0.00,VWS V14.01,2013-09-04 20:38:00,
2013-09-04 16:40:00,76.8,57.9,29.84,WSW,237,0.0,3.0,52,0.00,,SKC,0.00,VWS V14.01,2013-09-04 20:40:00,
2013-09-04 16:41:00,77.0,58.6,29.84,WSW,237,0.0,0.0,53,0.00,,SKC,0.00,VWS V14.01,2013-09-04 20:41:00,
2013-09-04 16:42:00,76.8,57.3,29.84,WSW,239,0.0,0.0,51,0.00,,SKC,0.00,VWS V14.01,2013-09-04 20:42:00,
2013-09-04 16:43:00,76.8,57.3,29.84,WSW,237,0.0,0.0,51,0.00,,SKC,0.00,VWS V14.01,2013-09-04 20:43:00,
2013-09-04 16:44:00,76.8,56.8,29.84,WSW,237,0.0,0.0,50,0.00,,SKC,0.00,VWS V14.01,2013-09-04 20:44:00,
2013-09-04 16:45:00,76.8,56.8,29.83,WSW,250,2.0,5.0,50,0.00,,SKC,0.00,VWS V14.01,2013-09-04 20:45:00,
2013-09-04 16:46:00,76.8,56.8,29.83,WSW,251,0.0,1.0,50,0.00,,SKC,0.00,VWS V14.01,2013-09-04 20:46:00,
2013-09-04 16:47:00,76.8,56.8,29.83,WSW,251,0.0,1.0,50,0.00,,SKC,0.00,VWS V14.01,2013-09-04 20:47:00,
2013-09-04 16:48:00,76.8,57.9,29.83,WSW,256,1.0,2.0,52,0.00,,SKC,0.00,VWS V14.01,2013-09-04 20:48:00,
2013-09-04 16:49:00,76.8,56.2,29.83,WSW,256,0.0,2.0,49,0.00,,SKC,0.00,VWS V14.01,2013-09-04 20:49:00,
2013-09-04 16:51:00,76.8,56.8,29.83,WSW,258,0.0,0.0,50,0.00,,SKC,0.00,VWS V14.01,2013-09-04 20:51:00,
2013-09-04 16:52:00,76.8,57.3,29.83,West,272,0.0,1.0,51,0.00,,SKC,0.00,VWS V14.01,2013-09-04 20:52:00,
2013-09-04 16:53:00,76.8,57.3,29.83,WSW,248,0.0,2.0,51,0.00,,SKC,0.00,VWS V14.01,2013-09-04 20:53:00,
2013-09-04 16:54:00,76.8,56.8,29.83,WSW,250,0.0,2.0,50,0.00,,SKC,0.00,VWS V14.01,2013-09-04 20:54:00,
2013-09-04 16:57:00,76.7,56.7,29.83,SW,216,0.0,2.0,50,0.00,,SKC,0.00,VWS V14.01,2013-09-04 20:57:00,
2013-09-04 16:58:00,76.7,56.1,29.83,West,270,2.0,2.0,49,0.00,,SKC,0.00,VWS V14.01,2013-09-04 20:58:00,
2013-09-04 16:59:00,76.7,56.1,29.83,West,272,0.0,2.0,49,0.00,,SKC,0.00,VWS V14.01,2013-09-04 20:59:00,
2013-09-04 17:00:00,76.5,55.9,29.83,West,272,0.0,2.0,49,0.00,,SKC,0.00,VWS V14.01,2013-09-04 21:00:00,
2013-09-04 17:02:00,76.5,56.5,29.83,West,271,0.0,0.0,50,0.00,,SKC,0.00,VWS V14.01,2013-09-04 21:02:00,
2013-09-04 17:03:00,76.5,56.5,29.83,West,272,0.0,0.0,50,0.00,,SKC,0.00,VWS V14.01,2013-09-04 21:03:00,
2013-09-04 17:04:00,76.5,56.5,29.83,West,270,0.0,0.0,50,0.00,,SKC,0.00,VWS V14.01,2013-09-04 21:04:00,
2013-09-04 17:05:00,76.5,56.5,29.83,West,272,0.0,0.0,50,0.00,,SKC,0.00,VWS V14.01,2013-09-04 21:05:00,
2013-09-04 17:07:00,76.5,57.0,29.83,WSW,257,0.0,5.0,51,0.00,,SKC,0.00,VWS V14.01,2013-09-04 21:07:00,
2013-09-04 17:08:00,76.5,55.9,29.83,West,260,2.0,5.0,49,0.00,,SKC,0.00,VWS V14.01,2013-09-04 21:08:00,
2013-09-04 17:09:00,76.5,55.4,29.83,West,260,0.0,5.0,48,0.00,,SKC,0.00,VWS V14.01,2013-09-04 21:09:00,
2013-09-04 17:10:00,76.5,55.4,29.83,West,260,0.0,5.0,48,0.00,,SKC,0.00,VWS V14.01,2013-09-04 21:10:00,
2013-09-04 17:13:00,76.5,56.5,29.83,WSW,257,0.0,0.0,50,0.00,,SKC,0.00,VWS V14.01,2013-09-04 21:13:00,
2013-09-04 17:14:00,76.5,56.5,29.83,WSW,257,0.0,0.0,50,0.00,,SKC,0.00,VWS V14.01,2013-09-04 21:14:00,
2013-09-04 17:15:00,76.3,55.8,29.83,WSW,258,0.0,0.0,49,0.00,,SKC,0.00,VWS V14.01,2013-09-04 21:15:00,
2013-09-04 17:16:00,76.3,55.8,29.83,WSW,258,0.0,0.0,49,0.00,,SKC,0.00,VWS V14.01,2013-09-04 21:16:00,
2013-09-04 17:18:00,76.3,55.8,29.83,WSW,258,0.0,0.0,49,0.00,,SKC,0.00,VWS V14.01,2013-09-04 21:18:00,
2013-09-04 17:19:00,76.3,57.4,29.83,WSW,257,1.0,2.0,52,0.00,,SKC,0.00,VWS V14.01,2013-09-04 21:19:00,
2013-09-04 17:20:00,76.1,57.2,29.83,WSW,257,1.0,3.0,52,0.00,,SKC,0.00,VWS V14.01,2013-09-04 21:20:00,
2013-09-04 17:21:00,76.1,57.2,29.83,NW,309,1.0,2.0,52,0.00,,SKC,0.00,VWS V14.01,2013-09-04 21:21:00,
2013-09-04 17:23:00,76.1,56.1,29.83,NW,306,0.0,2.0,50,0.00,,SKC,0.00,VWS V14.01,2013-09-04 21:23:00,
2013-09-04 17:24:00,76.1,56.1,29.83,NW,305,0.0,2.0,50,0.00,,SKC,0.00,VWS V14.01,2013-09-04 21:24:00,
2013-09-04 17:25:00,76.1,56.1,29.83,NW,305,0.0,2.0,50,0.00,,SKC,0.00,VWS V14.01,2013-09-04 21:25:00,
2013-09-04 17:26:00,76.0,55.5,29.83,SW,229,1.0,3.0,49,0.00,,SKC,0.00,VWS V14.01,2013-09-04 21:26:00,
2013-09-04 17:27:00,76.0,56.0,29.83,SW,229,0.0,3.0,50,0.00,,SKC,0.00,VWS V14.01,2013-09-04 21:27:00,
2013-09-04 17:28:00,76.0,56.0,29.83,SW,229,0.0,3.0,50,0.00,,SKC,0.00,VWS V14.01,2013-09-04 21:28:00,
2013-09-04 17:29:00,76.0,56.0,29.83,SW,226,0.0,3.0,50,0.00,,SKC,0.00,VWS V14.01,2013-09-04 21:29:00,
2013-09-04 17:30:00,76.0,57.1,29.83,SW,227,0.0,3.0,52,0.00,,SKC,0.00,VWS V14.01,2013-09-04 21:30:00,
2013-09-04 17:31:00,76.0,57.1,29.83,SW,226,0.0,0.0,52,0.00,,SKC,0.00,VWS V14.01,2013-09-04 21:31:00,
2013-09-04 17:33:00,75.8,57.5,29.83,SW,226,2.0,2.0,53,0.00,,SKC,0.00,VWS V14.01,2013-09-04 21:33:00,
2013-09-04 17:34:00,75.8,57.5,29.83,SW,226,0.0,2.0,53,0.00,,SKC,0.00,VWS V14.01,2013-09-04 21:34:00,
2013-09-04 17:35:00,75.8,57.5,29.83,SW,223,0.0,2.0,53,0.00,,SKC,0.00,VWS V14.01,2013-09-04 21:35:00,
2013-09-04 17:36:00,75.6,57.3,29.83,WSW,254,1.0,3.0,53,0.00,,SKC,0.00,VWS V14.01,2013-09-04 21:36:00,
2013-09-04 17:38:00,75.6,55.7,29.83,WSW,254,0.0,3.0,50,0.00,,SKC,0.00,VWS V14.01,2013-09-04 21:38:00,
2013-09-04 17:39:00,75.6,56.8,29.83,WSW,254,1.0,3.0,52,0.00,,SKC,0.00,VWS V14.01,2013-09-04 21:39:00,
2013-09-04 17:40:00,75.6,56.8,29.83,WSW,254,0.0,3.0,52,0.00,,SKC,0.00,VWS V14.01,2013-09-04 21:40:00,
2013-09-04 17:41:00,75.4,56.0,29.83,WSW,253,0.0,0.0,51,0.00,,SKC,0.00,VWS V14.01,2013-09-04 21:41:00,
2013-09-04 17:44:00,75.4,56.6,29.83,WNW,289,1.0,1.0,52,0.00,,SKC,0.00,VWS V14.01,2013-09-04 21:44:00,
2013-09-04 17:45:00,75.4,56.6,29.83,WNW,289,1.0,1.0,52,0.00,,SKC,0.00,VWS V14.01,2013-09-04 21:45:00,
2013-09-04 17:46:00,75.4,56.6,29.83,WNW,291,0.0,0.0,52,0.00,,SKC,0.00,VWS V14.01,2013-09-04 21:46:00,
2013-09-04 17:47:00,75.3,55.9,29.83,WNW,291,0.0,0.0,51,0.00,,SKC,0.00,VWS V14.01,2013-09-04 21:47:00,
2013-09-04 17:50:00,75.3,55.4,29.83,West,270,1.0,3.0,50,0.00,,SKC,0.00,VWS V14.01,2013-09-04 21:50:00,
2013-09-04 17:51:00,75.3,55.9,29.83,West,270,0.0,0.0,51,0.00,,SKC,0.00,VWS V14.01,2013-09-04 21:51:00,
2013-09-04 17:52:00,75.3,55.9,29.83,West,274,0.0,0.0,51,0.00,,SKC,0.00,VWS V14.01,2013-09-04 21:52:00,
2013-09-04 17:53:00,75.3,57.0,29.83,West,274,0.0,0.0,53,0.00,,SKC,0.00,VWS V14.01,2013-09-04 21:53:00,
2013-09-04 17:55:00,75.1,56.3,29.83,West,271,0.0,0.0,52,0.00,,SKC,0.00,VWS V14.01,2013-09-04 21:55:00,
2013-09-04 17:56:00,75.1,56.3,29.83,West,272,0.0,0.0,52,0.00,,SKC,0.00,VWS V14.01,2013-09-04 21:56:00,
2013-09-04 17:58:00,74.9,57.2,29.83,West,272,0.0,1.0,54,0.00,,SKC,0.00,VWS V14.01,2013-09-04 21:58:00,
2013-09-04 18:00:00,74.9,56.6,29.83,West,272,0.0,1.0,53,0.00,,SKC,0.00,VWS V14.01,2013-09-04 22:00:00,
2013-09-04 18:01:00,74.9,56.6,29.83,West,272,0.0,0.0,53,0.00,,SKC,0.00,VWS V14.01,2013-09-04 22:01:00,
2013-09-04 18:02:00,74.7,56.5,29.83,West,271,0.0,0.0,53,0.00,,SKC,0.00,VWS V14.01,2013-09-04 22:02:00,
2013-09-04 18:04:00,74.7,58.5,29.83,West,271,0.0,0.0,57,0.00,,SKC,0.00,VWS V14.01,2013-09-04 22:04:00,
2013-09-04 18:05:00,74.6,58.4,29.83,West,272,0.0,0.0,57,0.00,,SKC,0.00,VWS V14.01,2013-09-04 22:05:00,
2013-09-04 18:06:00,74.6,56.9,29.83,West,272,0.0,0.0,54,0.00,,SKC,0.00,VWS V14.01,2013-09-04 22:06:00,
2013-09-04 18:07:00,74.6,56.9,29.83,West,272,0.0,0.0,54,0.00,,SKC,0.00,VWS V14.01,2013-09-04 22:07:00,
2013-09-04 18:10:00,74.4,56.7,29.83,West,272,0.0,0.0,54,0.00,,SKC,0.00,VWS V14.01,2013-09-04 22:10:00,
2013-09-04 18:11:00,74.4,56.7,29.83,West,272,0.0,0.0,54,0.00,,SKC,0.00,VWS V14.01,2013-09-04 22:11:00,
2013-09-04 18:12:00,74.4,57.2,29.83,West,272,0.0,0.0,55,0.00,,SKC,0.00,VWS V14.01,2013-09-04 22:12:00,
2013-09-04 18:13:00,74.4,57.2,29.83,West,272,0.0,0.0,55,0.00,,SKC,0.00,VWS V14.01,2013-09-04 22:13:00,
2013-09-04 18:14:00,74.4,57.2,29.83,West,272,0.0,0.0,55,0.00,,SKC,0.00,VWS V14.01,2013-09-04 22:14:00,
2013-09-04 18:15:00,74.4,57.2,29.83,West,271,0.0,0.0,55,0.00,,SKC,0.00,VWS V14.01,2013-09-04 22:15:00,
2013-09-04 18:16:00,74.2,57.5,29.83,West,272,0.0,0.0,56,0.00,,SKC,0.00,VWS V14.01,2013-09-04 22:16:00,
2013-09-04 18:17:00,74.2,57.5,29.83,West,271,0.0,0.0,56,0.00,,SKC,0.00,VWS V14.01,2013-09-04 22:17:00,
2013-09-04 18:18:00,74.2,57.5,29.83,West,272,0.0,0.0,56,0.00,,SKC,0.00,VWS V14.01,2013-09-04 22:18:00,
2013-09-04 18:20:00,74.2,57.5,29.83,West,271,0.0,0.0,56,0.00,,SKC,0.00,VWS V14.01,2013-09-04 22:20:00,
2013-09-04 18:22:00,74.0,57.3,29.83,West,272,0.0,0.0,56,0.00,,SKC,0.00,VWS V14.01,2013-09-04 22:22:00,
2013-09-04 18:23:00,74.0,57.3,29.83,West,272,0.0,0.0,56,0.00,,SKC,0.00,VWS V14.01,2013-09-04 22:23:00,
2013-09-04 18:25:00,74.0,58.8,29.83,West,270,0.0,0.0,59,0.00,,SKC,0.00,VWS V14.01,2013-09-04 22:25:00,
2013-09-04 18:27:00,73.9,57.7,29.83,West,271,0.0,0.0,57,0.00,,SKC,0.00,VWS V14.01,2013-09-04 22:27:00,
2013-09-04 18:28:00,73.9,57.7,29.83,West,272,0.0,0.0,57,0.00,,SKC,0.00,VWS V14.01,2013-09-04 22:28:00,
2013-09-04 18:29:00,73.9,57.7,29.83,West,271,0.0,0.0,57,0.00,,SKC,0.00,VWS V14.01,2013-09-04 22:29:00,
2013-09-04 18:30:00,73.7,58.5,29.83,West,274,0.0,0.0,59,0.00,,SKC,0.00,VWS V14.01,2013-09-04 22:30:00,
2013-09-04 18:32:00,73.7,58.5,29.83,West,272,0.0,0.0,59,0.00,,SKC,0.00,VWS V14.01,2013-09-04 22:32:00,
2013-09-04 18:33:00,73.5,57.8,29.83,West,274,0.0,0.0,58,0.00,,SKC,0.00,VWS V14.01,2013-09-04 22:33:00,
2013-09-04 18:34:00,73.5,57.8,29.83,West,272,0.0,0.0,58,0.00,,SKC,0.00,VWS V14.01,2013-09-04 22:34:00,
2013-09-04 18:35:00,73.5,57.8,29.83,West,272,0.0,0.0,58,0.00,,SKC,0.00,VWS V14.01,2013-09-04 22:35:00,
2013-09-04 18:36:00,73.5,57.3,29.83,West,274,0.0,0.0,57,0.00,,SKC,0.00,VWS V14.01,2013-09-04 22:36:00,
2013-09-04 18:38:00,73.5,57.3,29.83,West,272,0.0,0.0,57,0.00,,SKC,0.00,VWS V14.01,2013-09-04 22:38:00,
2013-09-04 18:39:00,73.3,57.2,29.83,West,272,0.0,0.0,57,0.00,,SKC,0.00,VWS V14.01,2013-09-04 22:39:00,
2013-09-04 18:41:00,73.3,57.7,29.83,West,272,0.0,0.0,58,0.00,,SKC,0.00,VWS V14.01,2013-09-04 22:41:00,
2013-09-04 18:42:00,73.3,57.7,29.83,West,272,0.0,0.0,58,0.00,,SKC,0.00,VWS V14.01,2013-09-04 22:42:00,
2013-09-04 18:44:00,73.2,57.5,29.83,West,272,0.0,0.0,58,0.00,,SKC,0.00,VWS V14.01,2013-09-04 22:44:00,
2013-09-04 18:45:00,73.2,57.5,29.84,West,272,0.0,0.0,58,0.00,,SKC,0.00,VWS V14.01,2013-09-04 22:45:00,
2013-09-04 18:46:00,73.2,57.5,29.84,West,272,0.0,0.0,58,0.00,,SKC,0.00,VWS V14.01,2013-09-04 22:46:00,
2013-09-04 18:47:00,73.2,57.5,29.84,West,270,0.0,0.0,58,0.00,,SKC,0.00,VWS V14.01,2013-09-04 22:47:00,
2013-09-04 18:49:00,73.0,57.4,29.84,West,272,0.0,0.0,58,0.00,,SKC,0.00,VWS V14.01,2013-09-04 22:49:00,
2013-09-04 18:50:00,73.0,57.4,29.84,West,272,0.0,0.0,58,0.00,,SKC,0.00,VWS V14.01,2013-09-04 22:50:00,
2013-09-04 18:51:00,72.8,57.7,29.84,West,272,0.0,0.0,59,0.00,,SKC,0.00,VWS V14.01,2013-09-04 22:51:00,
2013-09-04 18:53:00,72.8,58.1,29.84,West,274,0.0,0.0,60,0.00,,SKC,0.00,VWS V14.01,2013-09-04 22:53:00,
2013-09-04 18:54:00,72.8,58.1,29.84,West,274,0.0,0.0,60,0.00,,SKC,0.00,VWS V14.01,2013-09-04 22:54:00,
2013-09-04 18:55:00,72.7,58.0,29.84,West,271,0.0,0.0,60,0.00,,SKC,0.00,VWS V14.01,2013-09-04 22:55:00,
2013-09-04 18:57:00,72.7,57.6,29.84,West,274,0.0,0.0,59,0.00,,SKC,0.00,VWS V14.01,2013-09-04 22:57:00,
2013-09-04 18:58:00,72.5,57.4,29.84,West,272,0.0,0.0,59,0.00,,SKC,0.00,VWS V14.01,2013-09-04 22:58:00,
2013-09-04 18:59:00,72.5,57.4,29.84,West,271,0.0,0.0,59,0.00,,SKC,0.00,VWS V14.01,2013-09-04 22:59:00,
2013-09-04 19:00:00,72.5,57.8,29.84,West,272,0.0,0.0,60,0.00,,SKC,0.00,VWS V14.01,2013-09-04 23:00:00,
2013-09-04 19:01:00,72.5,57.8,29.84,West,270,0.0,0.0,60,0.00,,SKC,0.00,VWS V14.01,2013-09-04 23:01:00,
2013-09-04 19:02:00,72.3,57.7,29.84,West,271,0.0,0.0,60,0.00,,SKC,0.00,VWS V14.01,2013-09-04 23:02:00,
2013-09-04 19:03:00,72.3,58.1,29.84,West,272,0.0,0.0,61,0.00,,SKC,0.00,VWS V14.01,2013-09-04 23:03:00,
2013-09-04 19:04:00,72.3,58.6,29.84,West,274,0.0,0.0,62,0.00,,SKC,0.00,VWS V14.01,2013-09-04 23:04:00,
2013-09-04 19:05:00,72.1,58.4,29.84,West,272,0.0,0.0,62,0.00,,SKC,0.00,VWS V14.01,2013-09-04 23:05:00,
2013-09-04 19:06:00,72.1,57.9,29.84,West,272,0.0,0.0,61,0.00,,SKC,0.00,VWS V14.01,2013-09-04 23:06:00,
2013-09-04 19:07:00,72.0,58.3,29.84,West,272,0.0,0.0,62,0.00,,SKC,0.00,VWS V14.01,2013-09-04 23:07:00,
2013-09-04 19:09:00,71.8,59.8,29.84,West,272,0.0,0.0,66,0.00,,SKC,0.00,VWS V14.01,2013-09-04 23:09:00,
2013-09-04 19:10:00,71.8,59.8,29.84,West,274,0.0,0.0,66,0.00,,SKC,0.00,VWS V14.01,2013-09-04 23:10:00,
2013-09-04 19:11:00,71.6,58.3,29.84,West,271,0.0,0.0,63,0.00,,SKC,0.00,VWS V14.01,2013-09-04 23:11:00,
2013-09-04 19:13:00,71.5,58.7,29.84,West,274,0.0,0.0,64,0.00,,SKC,0.00,VWS V14.01,2013-09-04 23:13:00,
2013-09-04 19:15:00,71.3,58.9,29.85,West,271,0.0,0.0,65,0.00,,SKC,0.00,VWS V14.01,2013-09-04 23:15:00,
2013-09-04 19:16:00,71.1,58.3,29.85,West,272,0.0,0.0,64,0.00,,SKC,0.00,VWS V14.01,2013-09-04 23:16:00,
2013-09-04 19:17:00,71.1,58.3,29.85,West,272,0.0,0.0,64,0.00,,SKC,0.00,VWS V14.01,2013-09-04 23:17:00,
2013-09-04 19:18:00,71.1,58.3,29.85,West,275,0.0,0.0,64,0.00,,SKC,0.00,VWS V14.01,2013-09-04 23:18:00,
2013-09-04 19:20:00,70.9,58.6,29.85,West,274,0.0,0.0,65,0.00,,SKC,0.00,VWS V14.01,2013-09-04 23:20:00,
2013-09-04 19:22:00,70.8,58.0,29.85,West,272,0.0,0.0,64,0.00,,SKC,0.00,VWS V14.01,2013-09-04 23:22:00,
2013-09-04 19:23:00,70.6,57.8,29.85,West,271,0.0,0.0,64,0.00,,SKC,0.00,VWS V14.01,2013-09-04 23:23:00,
2013-09-04 19:24:00,70.6,57.8,29.85,West,272,0.0,0.0,64,0.00,,SKC,0.00,VWS V14.01,2013-09-04 23:24:00,
2013-09-04 19:25:00,70.6,58.3,29.85,West,274,0.0,0.0,65,0.00,,SKC,0.00,VWS V14.01,2013-09-04 23:25:00,
2013-09-04 19:28:00,70.4,58.9,29.85,West,272,0.0,0.0,67,0.00,,SKC,0.00,VWS V14.01,2013-09-04 23:28:00,
2013-09-04 19:29:00,70.3,59.2,29.85,West,272,0.0,0.0,68,0.00,,SKC,0.00,VWS V14.01,2013-09-04 23:29:00,
2013-09-04 19:30:00,70.3,58.4,29.85,West,272,0.0,0.0,66,0.00,,SKC,0.00,VWS V14.01,2013-09-04 23:30:00,
2013-09-04 19:32:00,70.1,58.2,29.85,West,274,0.0,0.0,66,0.00,,SKC,0.00,VWS V14.01,2013-09-04 23:32:00,
2013-09-04 19:33:00,70.1,58.2,29.85,West,274,0.0,0.0,66,0.00,,SKC,0.00,VWS V14.01,2013-09-04 23:33:00,
2013-09-04 19:34:00,69.9,57.6,29.85,West,272,0.0,0.0,65,0.00,,SKC,0.00,VWS V14.01,2013-09-04 23:34:00,
2013-09-04 19:35:00,69.9,57.6,29.85,West,271,0.0,0.0,65,0.00,,SKC,0.00,VWS V14.01,2013-09-04 23:35:00,
2013-09-04 19:38:00,69.8,57.5,29.85,West,271,0.0,0.0,65,0.00,,SKC,0.00,VWS V14.01,2013-09-04 23:38:00,
2013-09-04 19:40:00,69.8,57.1,29.85,West,272,0.0,0.0,64,0.00,,SKC,0.00,VWS V14.01,2013-09-04 23:40:00,
2013-09-04 19:42:00,69.8,57.1,29.85,West,274,0.0,0.0,64,0.00,,SKC,0.00,VWS V14.01,2013-09-04 23:42:00,
2013-09-04 19:43:00,69.8,57.1,29.85,West,274,0.0,0.0,64,0.00,,SKC,0.00,VWS V14.01,2013-09-04 23:43:00,
2013-09-04 19:45:00,69.6,57.3,29.85,West,272,0.0,0.0,65,0.00,,SKC,0.00,VWS V14.01,2013-09-04 23:45:00,
2013-09-04 19:46:00,69.6,57.3,29.85,West,272,0.0,0.0,65,0.00,,SKC,0.00,VWS V14.01,2013-09-04 23:46:00,
2013-09-04 19:48:00,69.6,57.3,29.85,West,274,0.0,0.0,65,0.00,,SKC,0.00,VWS V14.01,2013-09-04 23:48:00,
2013-09-04 19:49:00,69.6,57.3,29.85,West,274,0.0,0.0,65,0.00,,SKC,0.00,VWS V14.01,2013-09-04 23:49:00,
2013-09-04 19:51:00,69.4,57.6,29.85,West,274,0.0,0.0,66,0.00,,SKC,0.00,VWS V14.01,2013-09-04 23:51:00,
2013-09-04 19:53:00,69.4,56.7,29.85,West,272,0.0,0.0,64,0.00,,SKC,0.00,VWS V14.01,2013-09-04 23:53:00,
2013-09-04 19:54:00,69.4,57.1,29.85,West,274,0.0,0.0,65,0.00,,SKC,0.00,VWS V14.01,2013-09-04 23:54:00,
2013-09-04 19:57:00,69.4,57.6,29.85,West,274,0.0,0.0,66,0.00,,SKC,0.00,VWS V14.01,2013-09-04 23:57:00,
2013-09-04 19:58:00,69.4,57.6,29.85,West,271,0.0,0.0,66,0.00,,SKC,0.00,VWS V14.01,2013-09-04 23:58:00,
2013-09-04 19:59:00,69.3,57.5,29.85,West,274,0.0,0.0,66,0.00,,SKC,0.00,VWS V14.01,2013-09-04 23:59:00,
2013-09-04 20:00:00,69.3,57.5,29.86,West,271,0.0,0.0,66,0.00,,SKC,0.00,VWS V14.01,2013-09-05 00:00:00,
2013-09-04 20:02:00,69.1,57.3,29.86,West,274,0.0,0.0,66,0.00,,SKC,0.00,VWS V14.01,2013-09-05 00:02:00,
2013-09-04 20:03:00,69.1,57.3,29.86,West,272,0.0,0.0,66,0.00,,SKC,0.00,VWS V14.01,2013-09-05 00:03:00,
2013-09-04 20:04:00,69.1,57.3,29.86,West,274,0.0,0.0,66,0.00,,SKC,0.00,VWS V14.01,2013-09-05 00:04:00,
2013-09-04 20:06:00,68.9,57.1,29.86,West,272,0.0,0.0,66,0.00,,SKC,0.00,VWS V14.01,2013-09-05 00:06:00,
2013-09-04 20:07:00,68.9,57.9,29.86,West,274,0.0,0.0,68,0.00,,SKC,0.00,VWS V14.01,2013-09-05 00:07:00,
2013-09-04 20:09:00,68.8,57.8,29.86,West,272,0.0,0.0,68,0.00,,SKC,0.00,VWS V14.01,2013-09-05 00:09:00,
2013-09-04 20:11:00,68.6,57.2,29.86,West,272,0.0,0.0,67,0.00,,SKC,0.00,VWS V14.01,2013-09-05 00:11:00,
2013-09-04 20:12:00,68.6,57.2,29.86,West,274,0.0,0.0,67,0.00,,SKC,0.00,VWS V14.01,2013-09-05 00:12:00,
2013-09-04 20:14:00,68.6,57.2,29.86,West,272,0.0,0.0,67,0.00,,SKC,0.00,VWS V14.01,2013-09-05 00:14:00,
2013-09-04 20:16:00,68.4,57.0,29.86,West,274,0.0,0.0,67,0.00,,SKC,0.00,VWS V14.01,2013-09-05 00:16:00,
2013-09-04 20:17:00,68.3,56.9,29.86,West,272,0.0,0.0,67,0.00,,SKC,0.00,VWS V14.01,2013-09-05 00:17:00,
2013-09-04 20:18:00,68.3,56.9,29.86,West,274,0.0,0.0,67,0.00,,SKC,0.00,VWS V14.01,2013-09-05 00:18:00,
2013-09-04 20:19:00,68.1,56.7,29.86,West,274,0.0,0.0,67,0.00,,SKC,0.00,VWS V14.01,2013-09-05 00:19:00,
2013-09-04 20:21:00,68.1,57.2,29.86,West,272,0.0,1.0,68,0.00,,SKC,0.00,VWS V14.01,2013-09-05 00:21:00,
2013-09-04 20:22:00,68.1,57.2,29.86,West,272,0.0,1.0,68,0.00,,SKC,0.00,VWS V14.01,2013-09-05 00:22:00,
2013-09-04 20:23:00,68.1,57.2,29.86,West,272,0.0,1.0,68,0.00,,SKC,0.00,VWS V14.01,2013-09-05 00:23:00,
2013-09-04 20:24:00,68.1,57.2,29.86,West,271,0.0,1.0,68,0.00,,SKC,0.00,VWS V14.01,2013-09-05 00:24:00,
2013-09-04 20:26:00,68.1,57.6,29.86,West,274,0.0,0.0,69,0.00,,SKC,0.00,VWS V14.01,2013-09-05 00:26:00,
2013-09-04 20:27:00,68.1,58.0,29.86,West,274,0.0,0.0,70,0.00,,SKC,0.00,VWS V14.01,2013-09-05 00:27:00,
2013-09-04 20:28:00,68.1,58.0,29.86,West,274,0.0,0.0,70,0.00,,SKC,0.00,VWS V14.01,2013-09-05 00:28:00,
2013-09-04 20:29:00,67.9,57.8,29.86,West,274,0.0,0.0,70,0.00,,SKC,0.00,VWS V14.01,2013-09-05 00:29:00,
2013-09-04 20:31:00,67.8,57.7,29.86,West,271,0.0,0.0,70,0.00,,SKC,0.00,VWS V14.01,2013-09-05 00:31:00,
2013-09-04 20:32:00,67.8,57.7,29.86,West,272,0.0,0.0,70,0.00,,SKC,0.00,VWS V14.01,2013-09-05 00:32:00,
2013-09-04 20:33:00,67.8,57.7,29.86,West,272,0.0,0.0,70,0.00,,SKC,0.00,VWS V14.01,2013-09-05 00:33:00,
2013-09-04 20:34:00,67.6,57.5,29.86,West,274,0.0,0.0,70,0.00,,SKC,0.00,VWS V14.01,2013-09-05 00:34:00,
2013-09-04 20:35:00,67.6,57.5,29.86,West,274,0.0,0.0,70,0.00,,SKC,0.00,VWS V14.01,2013-09-05 00:35:00,
2013-09-04 20:37:00,67.6,57.5,29.86,West,275,0.0,0.0,70,0.00,,SKC,0.00,VWS V14.01,2013-09-05 00:37:00,
2013-09-04 20:38:00,67.4,57.3,29.86,West,271,0.0,0.0,70,0.00,,SKC,0.00,VWS V14.01,2013-09-05 00:38:00,
2013-09-04 20:40:00,67.4,57.3,29.86,West,271,0.0,0.0,70,0.00,,SKC,0.00,VWS V14.01,2013-09-05 00:40:00,
2013-09-04 20:41:00,67.4,57.3,29.86,West,274,0.0,0.0,70,0.00,,SKC,0.00,VWS V14.01,2013-09-05 00:41:00,
2013-09-04 20:42:00,67.4,57.3,29.86,West,274,0.0,0.0,70,0.00,,SKC,0.00,VWS V14.01,2013-09-05 00:42:00,
2013-09-04 20:43:00,67.4,57.3,29.86,West,272,0.0,0.0,70,0.00,,SKC,0.00,VWS V14.01,2013-09-05 00:43:00,
2013-09-04 20:44:00,67.4,57.3,29.86,West,272,0.0,0.0,70,0.00,,SKC,0.00,VWS V14.01,2013-09-05 00:44:00,
2013-09-04 20:45:00,67.4,57.3,29.87,West,275,0.0,0.0,70,0.00,,SKC,0.00,VWS V14.01,2013-09-05 00:45:00,
2013-09-04 20:47:00,67.4,57.3,29.87,West,274,0.0,0.0,70,0.00,,SKC,0.00,VWS V14.01,2013-09-05 00:47:00,
2013-09-04 20:48:00,67.4,56.9,29.87,West,272,0.0,0.0,69,0.00,,SKC,0.00,VWS V14.01,2013-09-05 00:48:00,
2013-09-04 20:49:00,67.4,56.9,29.87,West,274,0.0,0.0,69,0.00,,SKC,0.00,VWS V14.01,2013-09-05 00:49:00,
2013-09-04 20:50:00,67.4,56.9,29.87,West,274,0.0,0.0,69,0.00,,SKC,0.00,VWS V14.01,2013-09-05 00:50:00,
2013-09-04 20:52:00,67.4,56.5,29.87,West,271,1.0,1.0,68,0.00,,SKC,0.00,VWS V14.01,2013-09-05 00:52:00,
2013-09-04 20:53:00,67.4,56.9,29.87,West,272,0.0,1.0,69,0.00,,SKC,0.00,VWS V14.01,2013-09-05 00:53:00,
2013-09-04 20:54:00,67.4,56.9,29.87,West,272,0.0,1.0,69,0.00,,SKC,0.00,VWS V14.01,2013-09-05 00:54:00,
2013-09-04 20:55:00,67.4,56.9,29.87,West,272,0.0,1.0,69,0.00,,SKC,0.00,VWS V14.01,2013-09-05 00:55:00,
2013-09-04 20:58:00,67.4,57.3,29.87,West,271,0.0,0.0,70,0.00,,SKC,0.00,VWS V14.01,2013-09-05 00:58:00,
2013-09-04 20:59:00,67.4,57.3,29.87,West,274,0.0,0.0,70,0.00,,SKC,0.00,VWS V14.01,2013-09-05 00:59:00,
2013-09-04 21:00:00,67.4,58.1,29.87,West,272,0.0,0.0,72,0.00,,SKC,0.00,VWS V14.01,2013-09-05 01:00:00,
2013-09-04 21:01:00,67.4,58.1,29.87,West,271,0.0,0.0,72,0.00,,SKC,0.00,VWS V14.01,2013-09-05 01:01:00,
2013-09-04 21:04:00,67.3,58.4,29.87,West,274,0.0,0.0,73,0.00,,SKC,0.00,VWS V14.01,2013-09-05 01:04:00,
2013-09-04 21:05:00,67.1,57.8,29.87,West,271,0.0,0.0,72,0.00,,SKC,0.00,VWS V14.01,2013-09-05 01:05:00,
2013-09-04 21:06:00,67.1,57.8,29.87,West,272,0.0,0.0,72,0.00,,SKC,0.00,VWS V14.01,2013-09-05 01:06:00,
2013-09-04 21:08:00,67.1,57.4,29.87,West,272,0.0,0.0,71,0.00,,SKC,0.00,VWS V14.01,2013-09-05 01:08:00,
2013-09-04 21:09:00,67.1,57.4,29.87,West,272,0.0,0.0,71,0.00,,SKC,0.00,VWS V14.01,2013-09-05 01:09:00,
2013-09-04 21:10:00,67.1,57.0,29.87,West,274,0.0,0.0,70,0.00,,SKC,0.00,VWS V14.01,2013-09-05 01:10:00,
2013-09-04 21:11:00,67.1,57.0,29.87,West,274,0.0,0.0,70,0.00,,SKC,0.00,VWS V14.01,2013-09-05 01:11:00,
2013-09-04 21:15:00,67.1,57.0,29.88,West,274,0.0,1.0,70,0.00,,SKC,0.00,VWS V14.01,2013-09-05 01:15:00,
2013-09-04 21:16:00,66.9,56.8,29.88,West,272,0.0,0.0,70,0.00,,SKC,0.00,VWS V14.01,2013-09-05 01:16:00,
2013-09-04 21:17:00,66.9,56.8,29.88,West,274,0.0,0.0,70,0.00,,SKC,0.00,VWS V14.01,2013-09-05 01:17:00,
2013-09-04 21:18:00,66.9,56.8,29.88,West,274,0.0,0.0,70,0.00,,SKC,0.00,VWS V14.01,2013-09-05 01:18:00,
2013-09-04 21:20:00,66.9,57.2,29.88,West,274,0.0,0.0,71,0.00,,SKC,0.00,VWS V14.01,2013-09-05 01:20:00,
2013-09-04 21:21:00,66.9,56.8,29.88,West,274,0.0,0.0,70,0.00,,SKC,0.00,VWS V14.01,2013-09-05 01:21:00,
2013-09-04 21:22:00,66.9,56.8,29.88,West,274,0.0,0.0,70,0.00,,SKC,0.00,VWS V14.01,2013-09-05 01:22:00,
2013-09-04 21:23:00,66.8,56.7,29.88,West,272,0.0,0.0,70,0.00,,SKC,0.00,VWS V14.01,2013-09-05 01:23:00,
2013-09-04 21:24:00,66.8,56.7,29.88,West,272,0.0,0.0,70,0.00,,SKC,0.00,VWS V14.01,2013-09-05 01:24:00,
2013-09-04 21:25:00,66.8,56.7,29.88,West,274,0.0,0.0,70,0.00,,SKC,0.00,VWS V14.01,2013-09-05 01:25:00,
2013-09-04 21:27:00,66.8,56.7,29.88,West,274,0.0,0.0,70,0.00,,SKC,0.00,VWS V14.01,2013-09-05 01:27:00,
2013-09-04 21:28:00,66.8,56.7,29.88,West,272,0.0,0.0,70,0.00,,SKC,0.00,VWS V14.01,2013-09-05 01:28:00,
2013-09-04 21:29:00,66.8,56.7,29.88,West,274,0.0,0.0,70,0.00,,SKC,0.00,VWS V14.01,2013-09-05 01:29:00,
2013-09-04 21:31:00,66.8,56.7,29.88,West,274,0.0,0.0,70,0.00,,SKC,0.00,VWS V14.01,2013-09-05 01:31:00,
2013-09-04 21:32:00,66.8,56.7,29.88,West,274,0.0,0.0,70,0.00,,SKC,0.00,VWS V14.01,2013-09-05 01:32:00,
2013-09-04 21:34:00,66.8,56.7,29.88,West,272,0.0,0.0,70,0.00,,SKC,0.00,VWS V14.01,2013-09-05 01:34:00,
2013-09-04 21:35:00,66.6,56.5,29.88,West,274,0.0,0.0,70,0.00,,SKC,0.00,VWS V14.01,2013-09-05 01:35:00,
2013-09-04 21:36:00,66.6,56.5,29.88,West,274,0.0,0.0,70,0.00,,SKC,0.00,VWS V14.01,2013-09-05 01:36:00,
2013-09-04 21:37:00,66.6,56.9,29.88,West,272,0.0,0.0,71,0.00,,SKC,0.00,VWS V14.01,2013-09-05 01:37:00,
2013-09-04 21:38:00,66.6,56.9,29.88,West,274,0.0,0.0,71,0.00,,SKC,0.00,VWS V14.01,2013-09-05 01:38:00,
2013-09-04 21:39:00,66.6,56.9,29.88,West,272,0.0,0.0,71,0.00,,SKC,0.00,VWS V14.01,2013-09-05 01:39:00,
2013-09-04 21:41:00,66.6,56.9,29.88,West,274,0.0,0.0,71,0.00,,SKC,0.00,VWS V14.01,2013-09-05 01:41:00,
2013-09-04 21:42:00,66.6,56.9,29.88,West,274,0.0,0.0,71,0.00,,SKC,0.00,VWS V14.01,2013-09-05 01:42:00,
2013-09-04 21:43:00,66.4,56.7,29.88,West,272,0.0,0.0,71,0.00,,SKC,0.00,VWS V14.01,2013-09-05 01:43:00,
2013-09-04 21:44:00,66.4,56.7,29.88,West,272,0.0,0.0,71,0.00,,SKC,0.00,VWS V14.01,2013-09-05 01:44:00,
2013-09-04 21:46:00,66.4,56.7,29.88,West,272,0.0,0.0,71,0.00,,SKC,0.00,VWS V14.01,2013-09-05 01:46:00,
2013-09-04 21:47:00,66.4,56.7,29.88,West,271,0.0,0.0,71,0.00,,SKC,0.00,VWS V14.01,2013-09-05 01:47:00,
2013-09-04 21:48:00,66.4,56.7,29.88,West,272,0.0,0.0,71,0.00,,SKC,0.00,VWS V14.01,2013-09-05 01:48:00,
2013-09-04 21:49:00,66.3,56.6,29.88,West,272,0.0,0.0,71,0.00,,SKC,0.00,VWS V14.01,2013-09-05 01:49:00,
2013-09-04 21:52:00,66.3,56.6,29.88,West,274,0.0,0.0,71,0.00,,SKC,0.00,VWS V14.01,2013-09-05 01:52:00,
2013-09-04 21:53:00,66.3,56.6,29.88,West,272,0.0,0.0,71,0.00,,SKC,0.00,VWS V14.01,2013-09-05 01:53:00,
2013-09-04 21:54:00,66.3,56.6,29.88,West,274,0.0,0.0,71,0.00,,SKC,0.00,VWS V14.01,2013-09-05 01:54:00,
2013-09-04 21:57:00,66.3,56.6,29.88,West,272,0.0,0.0,71,0.00,,SKC,0.00,VWS V14.01,2013-09-05 01:57:00,
2013-09-04 21:58:00,66.3,56.6,29.88,West,272,0.0,0.0,71,0.00,,SKC,0.00,VWS V14.01,2013-09-05 01:58:00,
2013-09-04 21:59:00,66.1,56.4,29.88,West,272,0.0,2.0,71,0.00,,SKC,0.00,VWS V14.01,2013-09-05 01:59:00,
2013-09-04 22:00:00,66.1,56.8,29.88,West,272,0.0,0.0,72,0.00,,SKC,0.00,VWS V14.01,2013-09-05 02:00:00,
2013-09-04 22:01:00,66.1,56.8,29.88,West,274,1.0,1.0,72,0.00,,SKC,0.00,VWS V14.01,2013-09-05 02:01:00,
2013-09-04 22:02:00,66.1,56.8,29.88,West,274,0.0,1.0,72,0.00,,SKC,0.00,VWS V14.01,2013-09-05 02:02:00,
2013-09-04 22:03:00,66.1,56.8,29.88,West,275,0.0,1.0,72,0.00,,SKC,0.00,VWS V14.01,2013-09-05 02:03:00,
2013-09-04 22:05:00,66.1,56.8,29.88,West,274,0.0,1.0,72,0.00,,SKC,0.00,VWS V14.01,2013-09-05 02:05:00,
2013-09-04 22:06:00,66.1,56.8,29.88,West,272,0.0,0.0,72,0.00,,SKC,0.00,VWS V14.01,2013-09-05 02:06:00,
2013-09-04 22:07:00,66.1,56.8,29.88,West,272,0.0,0.0,72,0.00,,SKC,0.00,VWS V14.01,2013-09-05 02:07:00,
2013-09-04 22:08:00,66.1,56.8,29.88,West,274,0.0,0.0,72,0.00,,SKC,0.00,VWS V14.01,2013-09-05 02:08:00,
2013-09-04 22:09:00,66.1,56.8,29.88,West,274,0.0,0.0,72,0.00,,SKC,0.00,VWS V14.01,2013-09-05 02:09:00,
2013-09-04 22:10:00,66.1,56.8,29.88,West,274,0.0,0.0,72,0.00,,SKC,0.00,VWS V14.01,2013-09-05 02:10:00,
2013-09-04 22:12:00,66.0,57.1,29.88,West,274,0.0,0.0,73,0.00,,SKC,0.00,VWS V14.01,2013-09-05 02:12:00,
2013-09-04 22:13:00,66.0,57.1,29.88,West,272,0.0,0.0,73,0.00,,SKC,0.00,VWS V14.01,2013-09-05 02:13:00,
2013-09-04 22:14:00,66.0,56.7,29.88,West,274,0.0,0.0,72,0.00,,SKC,0.00,VWS V14.01,2013-09-05 02:14:00,
2013-09-04 22:16:00,66.0,57.5,29.89,West,272,0.0,0.0,74,0.00,,SKC,0.00,VWS V14.01,2013-09-05 02:16:00,
2013-09-04 22:18:00,66.0,57.5,29.89,West,274,0.0,0.0,74,0.00,,SKC,0.00,VWS V14.01,2013-09-05 02:18:00,
2013-09-04 22:19:00,65.8,57.3,29.89,West,272,0.0,0.0,74,0.00,,SKC,0.00,VWS V14.01,2013-09-05 02:19:00,
2013-09-04 22:21:00,65.8,57.3,29.89,West,274,0.0,0.0,74,0.00,,SKC,0.00,VWS V14.01,2013-09-05 02:21:00,
2013-09-04 22:23:00,65.6,57.1,29.89,West,274,0.0,0.0,74,0.00,,SKC,0.00,VWS V14.01,2013-09-05 02:23:00,
2013-09-04 22:24:00,65.6,57.1,29.89,West,274,0.0,0.0,74,0.00,,SKC,0.00,VWS V14.01,2013-09-05 02:24:00,
2013-09-04 22:27:00,65.6,57.1,29.89,West,272,0.0,0.0,74,0.00,,SKC,0.00,VWS V14.01,2013-09-05 02:27:00,
2013-09-04 22:28:00,65.5,57.0,29.89,West,272,0.0,0.0,74,0.00,,SKC,0.00,VWS V14.01,2013-09-05 02:28:00,
2013-09-04 22:29:00,65.5,57.0,29.89,West,271,0.0,0.0,74,0.00,,SKC,0.00,VWS V14.01,2013-09-05 02:29:00,
2013-09-04 22:32:00,65.5,57.4,29.89,West,274,0.0,0.0,75,0.00,,SKC,0.00,VWS V14.01,2013-09-05 02:32:00,
2013-09-04 22:33:00,65.5,57.4,29.89,West,274,0.0,0.0,75,0.00,,SKC,0.00,VWS V14.01,2013-09-05 02:33:00,
2013-09-04 22:34:00,65.5,57.4,29.89,West,274,0.0,0.0,75,0.00,,SKC,0.00,VWS V14.01,2013-09-05 02:34:00,
2013-09-04 22:38:00,65.5,57.4,29.89,West,272,0.0,0.0,75,0.00,,SKC,0.00,VWS V14.01,2013-09-05 02:38:00,
2013-09-04 22:39:00,65.5,57.4,29.89,West,272,0.0,0.0,75,0.00,,SKC,0.00,VWS V14.01,2013-09-05 02:39:00,
2013-09-04 22:40:00,65.5,57.4,29.89,West,274,0.0,0.0,75,0.00,,SKC,0.00,VWS V14.01,2013-09-05 02:40:00,
2013-09-04 22:41:00,65.5,57.4,29.89,West,274,0.0,0.0,75,0.00,,SKC,0.00,VWS V14.01,2013-09-05 02:41:00,
2013-09-04 22:43:00,65.3,57.5,29.89,West,274,0.0,0.0,76,0.00,,SKC,0.00,VWS V14.01,2013-09-05 02:43:00,
2013-09-04 22:44:00,65.3,57.5,29.89,West,274,0.0,0.0,76,0.00,,SKC,0.00,VWS V14.01,2013-09-05 02:44:00,
2013-09-04 22:45:00,65.3,57.5,29.89,West,274,0.0,0.0,76,0.00,,SKC,0.00,VWS V14.01,2013-09-05 02:45:00,
2013-09-04 22:46:00,65.3,57.5,29.89,West,274,0.0,0.0,76,0.00,,SKC,0.00,VWS V14.01,2013-09-05 02:46:00,
2013-09-04 22:48:00,65.3,57.5,29.89,West,274,0.0,0.0,76,0.00,,SKC,0.00,VWS V14.01,2013-09-05 02:48:00,
2013-09-04 22:49:00,65.2,57.5,29.89,West,275,0.0,0.0,76,0.00,,SKC,0.00,VWS V14.01,2013-09-05 02:49:00,
2013-09-04 22:50:00,65.2,57.5,29.89,West,277,0.0,0.0,76,0.00,,SKC,0.00,VWS V14.01,2013-09-05 02:50:00,
2013-09-04 22:51:00,65.2,57.8,29.89,West,274,0.0,0.0,77,0.00,,SKC,0.00,VWS V14.01,2013-09-05 02:51:00,
2013-09-04 22:53:00,65.2,57.8,29.89,West,274,0.0,0.0,77,0.00,,SKC,0.00,VWS V14.01,2013-09-05 02:53:00,
2013-09-04 22:55:00,65.2,57.8,29.89,West,272,0.0,0.0,77,0.00,,SKC,0.00,VWS V14.01,2013-09-05 02:55:00,
2013-09-04 22:57:00,65.0,58.0,29.89,West,274,0.0,0.0,78,0.00,,SKC,0.00,VWS V14.01,2013-09-05 02:57:00,
2013-09-04 22:58:00,65.0,58.0,29.89,West,274,0.0,0.0,78,0.00,,SKC,0.00,VWS V14.01,2013-09-05 02:58:00,
2013-09-04 22:59:00,65.0,58.0,29.89,West,272,0.0,0.0,78,0.00,,SKC,0.00,VWS V14.01,2013-09-05 02:59:00,
2013-09-04 23:00:00,65.0,58.0,29.89,West,274,1.0,1.0,78,0.00,,SKC,0.00,VWS V14.01,2013-09-05 03:00:00,
2013-09-04 23:01:00,65.0,58.0,29.89,West,274,0.0,0.0,78,0.00,,SKC,0.00,VWS V14.01,2013-09-05 03:01:00,
2013-09-04 23:02:00,64.8,57.8,29.89,West,275,0.0,0.0,78,0.00,,SKC,0.00,VWS V14.01,2013-09-05 03:02:00,
2013-09-04 23:04:00,64.8,57.8,29.89,West,275,0.0,0.0,78,0.00,,SKC,0.00,VWS V14.01,2013-09-05 03:04:00,
2013-09-04 23:05:00,64.8,57.8,29.89,West,272,0.0,0.0,78,0.00,,SKC,0.00,VWS V14.01,2013-09-05 03:05:00,
2013-09-04 23:07:00,64.8,57.8,29.89,West,275,0.0,0.0,78,0.00,,SKC,0.00,VWS V14.01,2013-09-05 03:07:00,
2013-09-04 23:08:00,64.7,57.7,29.89,West,274,0.0,0.0,78,0.00,,SKC,0.00,VWS V14.01,2013-09-05 03:08:00,
2013-09-04 23:09:00,64.7,57.7,29.89,West,274,0.0,0.0,78,0.00,,SKC,0.00,VWS V14.01,2013-09-05 03:09:00,
2013-09-04 23:10:00,64.7,58.0,29.89,West,274,0.0,0.0,79,0.00,,SKC,0.00,VWS V14.01,2013-09-05 03:10:00,
2013-09-04 23:12:00,64.7,58.0,29.89,West,274,0.0,0.0,79,0.00,,SKC,0.00,VWS V14.01,2013-09-05 03:12:00,
2013-09-04 23:13:00,64.7,58.0,29.89,West,274,0.0,0.0,79,0.00,,SKC,0.00,VWS V14.01,2013-09-05 03:13:00,
2013-09-04 23:14:00,64.7,58.0,29.89,West,274,0.0,0.0,79,0.00,,SKC,0.00,VWS V14.01,2013-09-05 03:14:00,
2013-09-04 23:15:00,64.5,57.8,29.89,West,274,0.0,0.0,79,0.00,,SKC,0.00,VWS V14.01,2013-09-05 03:15:00,
2013-09-04 23:18:00,64.5,58.2,29.89,West,272,0.0,0.0,80,0.00,,SKC,0.00,VWS V14.01,2013-09-05 03:18:00,
2013-09-04 23:20:00,64.3,58.0,29.89,West,274,0.0,0.0,80,0.00,,SKC,0.00,VWS V14.01,2013-09-05 03:20:00,
2013-09-04 23:21:00,64.3,58.0,29.89,West,274,0.0,0.0,80,0.00,,SKC,0.00,VWS V14.01,2013-09-05 03:21:00,
2013-09-04 23:22:00,64.3,58.0,29.89,West,271,0.0,0.0,80,0.00,,SKC,0.00,VWS V14.01,2013-09-05 03:22:00,
2013-09-04 23:23:00,64.3,58.0,29.89,West,275,0.0,0.0,80,0.00,,SKC,0.00,VWS V14.01,2013-09-05 03:23:00,
2013-09-04 23:24:00,64.3,58.3,29.89,West,275,0.0,0.0,81,0.00,,SKC,0.00,VWS V14.01,2013-09-05 03:24:00,
2013-09-04 23:25:00,64.3,58.0,29.89,West,274,0.0,0.0,80,0.00,,SKC,0.00,VWS V14.01,2013-09-05 03:25:00,
2013-09-04 23:27:00,64.3,58.3,29.89,West,274,0.0,0.0,81,0.00,,SKC,0.00,VWS V14.01,2013-09-05 03:27:00,
2013-09-04 23:28:00,64.2,58.3,29.89,West,275,0.0,0.0,81,0.00,,SKC,0.00,VWS V14.01,2013-09-05 03:28:00,
2013-09-04 23:30:00,64.2,58.3,29.89,West,274,0.0,0.0,81,0.00,,SKC,0.00,VWS V14.01,2013-09-05 03:30:00,
2013-09-04 23:31:00,64.2,58.3,29.89,West,274,0.0,0.0,81,0.00,,SKC,0.00,VWS V14.01,2013-09-05 03:31:00,
2013-09-04 23:32:00,64.2,58.3,29.89,West,272,0.0,0.0,81,0.00,,SKC,0.00,VWS V14.01,2013-09-05 03:32:00,
2013-09-04 23:33:00,64.2,58.3,29.89,West,275,0.0,0.0,81,0.00,,SKC,0.00,VWS V14.01,2013-09-05 03:33:00,
2013-09-04 23:34:00,64.2,58.3,29.89,West,274,0.0,0.0,81,0.00,,SKC,0.00,VWS V14.01,2013-09-05 03:34:00,
2013-09-04 23:35:00,64.0,58.1,29.89,West,274,0.0,0.0,81,0.00,,SKC,0.00,VWS V14.01,2013-09-05 03:35:00,
2013-09-04 23:36:00,64.0,58.1,29.89,West,275,0.0,0.0,81,0.00,,SKC,0.00,VWS V14.01,2013-09-05 03:36:00,
2013-09-04 23:37:00,64.0,58.1,29.89,West,274,0.0,0.0,81,0.00,,SKC,0.00,VWS V14.01,2013-09-05 03:37:00,
2013-09-04 23:38:00,64.0,58.1,29.89,West,275,0.0,0.0,81,0.00,,SKC,0.00,VWS V14.01,2013-09-05 03:38:00,
2013-09-04 23:39:00,64.0,58.1,29.89,West,272,0.0,0.0,81,0.00,,SKC,0.00,VWS V14.01,2013-09-05 03:39:00,
2013-09-04 23:41:00,63.9,58.0,29.89,West,274,0.0,0.0,81,0.00,,SKC,0.00,VWS V14.01,2013-09-05 03:41:00,
2013-09-04 23:44:00,63.9,58.0,29.89,West,272,0.0,0.0,81,0.00,,SKC,0.00,VWS V14.01,2013-09-05 03:44:00,
2013-09-04 23:45:00,63.9,58.0,29.89,West,274,0.0,0.0,81,0.00,,SKC,0.00,VWS V14.01,2013-09-05 03:45:00,
2013-09-04 23:46:00,63.9,58.0,29.89,West,272,0.0,0.0,81,0.00,,SKC,0.00,VWS V14.01,2013-09-05 03:46:00,
2013-09-04 23:49:00,63.9,58.0,29.89,West,274,0.0,0.0,81,0.00,,SKC,0.00,VWS V14.01,2013-09-05 03:49:00,
2013-09-04 23:50:00,63.9,58.0,29.89,West,274,0.0,0.0,81,0.00,,SKC,0.00,VWS V14.01,2013-09-05 03:50:00,
2013-09-04 23:51:00,63.9,58.0,29.89,West,275,0.0,0.0,81,0.00,,SKC,0.00,VWS V14.01,2013-09-05 03:51:00,
2013-09-04 23:52:00,63.9,58.6,29.89,West,274,0.0,0.0,83,0.00,,SKC,0.00,VWS V14.01,2013-09-05 03:52:00,
2013-09-04 23:54:00,63.9,59.0,29.89,West,274,0.0,0.0,84,0.00,,SKC,0.00,VWS V14.01,2013-09-05 03:54:00,
2013-09-04 23:55:00,63.7,58.8,29.89,West,274,0.0,0.0,84,0.00,,SKC,0.00,VWS V14.01,2013-09-05 03:55:00,
2013-09-04 23:56:00,63.7,58.8,29.89,West,272,0.0,0.0,84,0.00,,SKC,0.00,VWS V14.01,2013-09-05 03:56:00,
2013-09-04 23:57:00,63.7,58.5,29.89,West,274,0.0,0.0,83,0.00,,SKC,0.00,VWS V14.01,2013-09-05 03:57:00,
2013-09-04 23:59:00,63.5,58.2,29.89,West,274,0.0,0.0,83,0.00,,SKC,0.00,VWS V14.01,2013-09-05 03:59:00,